Time,TemperatureF,DewpointF,PressureIn,WindDirection,WindDirectionDegrees,WindSpeedMPH,WindSpeedGustMPH,Humidity,HourlyPrecipIn,Conditions,Clouds,dailyrainin,SoftwareType,DateUTC
2013-03-21 00:00:00,20.3,4.6,30.14,North,349,4.9,4.9,50,0.00,,CLR,0.00,VWS V14.01,2013-03-21 05:00:00,
2013-03-21 00:01:00,20.3,4.6,30.14,North,349,5.8,6.3,50,0.00,,CLR,0.00,VWS V14.01,2013-03-21 05:01:00,
2013-03-21 00:03:00,20.3,4.6,30.14,North,353,4.0,4.0,50,0.00,,CLR,0.00,VWS V14.01,2013-03-21 05:03:00,
2013-03-21 00:06:00,20.3,4.6,30.14,NNW,337,5.4,5.4,50,0.00,,CLR,0.00,VWS V14.01,2013-03-21 05:06:00,
2013-03-21 00:07:00,20.3,4.6,30.14,North,5,5.4,5.8,50,0.00,,CLR,0.00,VWS V14.01,2013-03-21 05:07:00,
2013-03-21 00:09:00,20.3,4.6,30.14,North,0,4.0,4.9,50,0.00,,CLR,0.00,VWS V14.01,2013-03-21 05:09:00,
2013-03-21 00:11:00,20.1,4.5,30.14,North,0,4.9,4.9,50,0.00,,CLR,0.00,VWS V14.01,2013-03-21 05:11:00,
2013-03-21 00:12:00,20.1,4.5,30.14,North,0,5.8,6.3,50,0.00,,CLR,0.00,VWS V14.01,2013-03-21 05:12:00,
2013-03-21 00:13:00,20.1,4.5,30.14,North,353,5.8,7.6,50,0.00,,CLR,0.00,VWS V14.01,2013-03-21 05:13:00,
2013-03-21 00:14:00,20.1,4.5,30.14,North,349,4.5,4.5,50,0.00,,CLR,0.00,VWS V14.01,2013-03-21 05:14:00,
2013-03-21 00:17:00,20.1,4.5,30.14,NNW,340,5.4,5.4,50,0.00,,CLR,0.00,VWS V14.01,2013-03-21 05:17:00,
2013-03-21 00:18:00,20.1,4.5,30.14,North,353,6.3,6.3,50,0.00,,CLR,0.00,VWS V14.01,2013-03-21 05:18:00,
2013-03-21 00:19:00,20.1,4.5,30.14,NNW,341,5.8,6.3,50,0.00,,CLR,0.00,VWS V14.01,2013-03-21 05:19:00,
2013-03-21 00:22:00,20.1,4.5,30.14,NNW,343,4.9,5.8,50,0.00,,CLR,0.00,VWS V14.01,2013-03-21 05:22:00,
2013-03-21 00:24:00,20.1,4.5,30.14,NNW,340,5.4,5.8,50,0.00,,CLR,0.00,VWS V14.01,2013-03-21 05:24:00,
2013-03-21 00:27:00,19.9,4.3,30.14,NNW,329,6.3,6.7,50,0.00,,CLR,0.00,VWS V14.01,2013-03-21 05:27:00,
2013-03-21 00:28:00,19.9,4.3,30.14,NNW,328,6.3,7.2,50,0.00,,CLR,0.00,VWS V14.01,2013-03-21 05:28:00,
2013-03-21 00:29:00,20.1,4.5,30.14,NNW,327,8.1,8.3,50,0.00,,CLR,0.00,VWS V14.01,2013-03-21 05:29:00,
2013-03-21 00:32:00,20.3,4.6,30.14,NNW,334,5.8,5.8,50,0.00,,CLR,0.00,VWS V14.01,2013-03-21 05:32:00,
2013-03-21 00:33:00,20.3,4.6,30.14,NNW,336,5.8,6.3,50,0.00,,CLR,0.00,VWS V14.01,2013-03-21 05:33:00,
2013-03-21 00:34:00,20.3,4.6,30.14,NNW,343,5.8,6.3,50,0.00,,CLR,0.00,VWS V14.01,2013-03-21 05:34:00,
2013-03-21 00:38:00,20.3,4.6,30.14,NNW,338,4.9,4.9,50,0.00,,CLR,0.00,VWS V14.01,2013-03-21 05:38:00,
2013-03-21 00:40:00,20.3,4.6,30.14,NNW,342,5.4,5.8,50,0.00,,CLR,0.00,VWS V14.01,2013-03-21 05:40:00,
2013-03-21 00:43:00,20.3,4.6,30.14,North,353,5.8,6.7,50,0.00,,CLR,0.00,VWS V14.01,2013-03-21 05:43:00,
2013-03-21 00:44:00,20.3,4.6,30.14,North,353,5.4,5.8,50,0.00,,CLR,0.00,VWS V14.01,2013-03-21 05:44:00,
2013-03-21 00:45:00,20.3,4.6,30.14,North,353,5.4,6.3,50,0.00,,CLR,0.00,VWS V14.01,2013-03-21 05:45:00,
2013-03-21 00:49:00,20.3,4.6,30.14,North,357,6.3,6.3,50,0.00,,CLR,0.00,VWS V14.01,2013-03-21 05:49:00,
2013-03-21 00:50:00,20.3,4.6,30.14,North,4,8.7,8.7,50,0.00,,CLR,0.00,VWS V14.01,2013-03-21 05:50:00,
2013-03-21 00:51:00,20.3,4.6,30.14,NNW,340,8.1,8.7,50,0.00,,CLR,0.00,VWS V14.01,2013-03-21 05:51:00,
2013-03-21 00:55:00,20.5,4.8,30.11,North,5,8.3,8.3,50,0.00,,CLR,0.00,VWS V14.01,2013-03-21 05:55:00,
2013-03-21 00:56:00,20.5,4.8,30.11,North,3,8.1,8.7,50,0.00,,CLR,0.00,VWS V14.01,2013-03-21 05:56:00,
2013-03-21 01:00:00,20.7,5.0,30.11,North,1,5.8,6.3,50,0.00,,CLR,0.00,VWS V14.01,2013-03-21 06:00:00,
2013-03-21 01:02:00,20.5,4.8,30.11,North,0,5.8,5.8,50,0.00,,CLR,0.00,VWS V14.01,2013-03-21 06:02:00,
2013-03-21 01:05:00,20.5,4.8,30.11,North,353,4.9,5.4,50,0.00,,CLR,0.00,VWS V14.01,2013-03-21 06:05:00,
2013-03-21 01:06:00,20.5,4.8,30.11,NNW,348,5.8,5.8,50,0.00,,CLR,0.00,VWS V14.01,2013-03-21 06:06:00,
2013-03-21 01:07:00,20.3,4.6,30.11,NNW,337,5.8,5.8,50,0.00,,CLR,0.00,VWS V14.01,2013-03-21 06:07:00,
2013-03-21 01:08:00,20.3,4.6,30.11,NNW,345,6.3,6.3,50,0.00,,CLR,0.00,VWS V14.01,2013-03-21 06:08:00,
2013-03-21 01:10:00,20.3,4.6,30.11,NNW,332,7.6,7.6,50,0.00,,CLR,0.00,VWS V14.01,2013-03-21 06:10:00,
2013-03-21 01:11:00,20.3,4.6,30.11,North,349,6.3,7.6,50,0.00,,CLR,0.00,VWS V14.01,2013-03-21 06:11:00,
2013-03-21 01:13:00,20.5,4.8,30.11,NNW,344,5.8,6.3,50,0.00,,CLR,0.00,VWS V14.01,2013-03-21 06:13:00,
2013-03-21 01:14:00,20.5,4.8,30.11,NNW,330,8.7,10.1,50,0.00,,CLR,0.00,VWS V14.01,2013-03-21 06:14:00,
2013-03-21 01:15:00,20.3,4.6,30.11,NNW,334,6.7,8.3,50,0.00,,CLR,0.00,VWS V14.01,2013-03-21 06:15:00,
2013-03-21 01:18:00,20.5,4.8,30.11,NNW,335,7.6,7.6,50,0.00,,CLR,0.00,VWS V14.01,2013-03-21 06:18:00,
2013-03-21 01:19:00,20.5,4.8,30.11,NNW,335,6.3,7.6,50,0.00,,CLR,0.00,VWS V14.01,2013-03-21 06:19:00,
2013-03-21 01:21:00,20.5,4.8,30.11,NNW,329,7.6,8.1,50,0.00,,CLR,0.00,VWS V14.01,2013-03-21 06:21:00,
2013-03-21 01:23:00,20.5,4.8,30.11,NNW,335,8.3,8.3,50,0.00,,CLR,0.00,VWS V14.01,2013-03-21 06:23:00,
2013-03-21 01:24:00,20.3,4.6,30.11,NNW,335,7.2,8.3,50,0.00,,CLR,0.00,VWS V14.01,2013-03-21 06:24:00,
2013-03-21 01:28:00,20.3,4.6,30.11,NNW,342,6.3,8.1,50,0.00,,CLR,0.00,VWS V14.01,2013-03-21 06:28:00,
2013-03-21 01:29:00,20.5,4.8,30.11,NNW,345,7.2,7.2,50,0.00,,CLR,0.00,VWS V14.01,2013-03-21 06:29:00,
2013-03-21 01:33:00,20.3,4.6,30.11,North,353,6.3,8.1,50,0.00,,CLR,0.00,VWS V14.01,2013-03-21 06:33:00,
2013-03-21 01:34:00,20.3,4.6,30.11,NNW,339,5.4,8.1,50,0.00,,CLR,0.00,VWS V14.01,2013-03-21 06:34:00,
2013-03-21 01:35:00,20.3,4.6,30.11,NNW,332,7.6,7.6,50,0.00,,CLR,0.00,VWS V14.01,2013-03-21 06:35:00,
2013-03-21 01:36:00,20.1,4.5,30.11,NNW,342,6.3,7.6,50,0.00,,CLR,0.00,VWS V14.01,2013-03-21 06:36:00,
2013-03-21 01:39:00,20.1,4.5,30.11,NNW,341,6.3,7.6,50,0.00,,CLR,0.00,VWS V14.01,2013-03-21 06:39:00,
2013-03-21 01:40:00,20.1,4.5,30.11,North,353,5.4,6.3,50,0.00,,CLR,0.00,VWS V14.01,2013-03-21 06:40:00,
2013-03-21 01:41:00,20.1,4.5,30.11,North,353,5.4,6.3,50,0.00,,CLR,0.00,VWS V14.01,2013-03-21 06:41:00,
2013-03-21 01:44:00,19.8,4.1,30.11,North,353,6.3,6.3,50,0.00,,CLR,0.00,VWS V14.01,2013-03-21 06:44:00,
2013-03-21 01:46:00,19.8,5.8,30.11,NNW,339,6.3,6.3,54,0.00,,CLR,0.00,VWS V14.01,2013-03-21 06:46:00,
2013-03-21 01:47:00,19.8,5.8,30.11,NW,326,5.8,5.8,54,0.00,,CLR,0.00,VWS V14.01,2013-03-21 06:47:00,
2013-03-21 01:50:00,19.6,5.7,30.11,NW,316,4.9,5.4,54,0.00,,CLR,0.00,VWS V14.01,2013-03-21 06:50:00,
2013-03-21 01:51:00,19.8,5.8,30.11,NW,326,6.3,6.3,54,0.00,,CLR,0.00,VWS V14.01,2013-03-21 06:51:00,
2013-03-21 01:52:00,19.6,5.7,30.11,NW,320,5.4,7.6,54,0.00,,CLR,0.00,VWS V14.01,2013-03-21 06:52:00,
2013-03-21 01:53:00,19.6,5.7,30.11,NW,321,5.8,7.6,54,0.00,,CLR,0.00,VWS V14.01,2013-03-21 06:53:00,
2013-03-21 01:55:00,19.8,5.8,30.11,NW,325,6.3,8.3,54,0.00,,CLR,0.00,VWS V14.01,2013-03-21 06:55:00,
2013-03-21 01:57:00,19.6,5.7,30.11,NNW,331,5.8,6.7,54,0.00,,CLR,0.00,VWS V14.01,2013-03-21 06:57:00,
2013-03-21 01:59:00,19.6,5.7,30.11,NNW,329,6.3,6.3,54,0.00,,CLR,0.00,VWS V14.01,2013-03-21 06:59:00,
2013-03-21 02:01:00,19.6,5.7,30.11,NNW,331,5.8,6.3,54,0.00,,CLR,0.00,VWS V14.01,2013-03-21 07:01:00,
2013-03-21 02:02:00,19.6,5.7,30.11,NNW,333,5.4,6.3,54,0.00,,CLR,0.00,VWS V14.01,2013-03-21 07:02:00,
2013-03-21 02:03:00,19.6,5.7,30.11,NNW,329,7.2,7.2,54,0.00,,CLR,0.00,VWS V14.01,2013-03-21 07:03:00,
2013-03-21 02:04:00,19.6,5.7,30.11,NNW,335,4.9,5.8,54,0.00,,CLR,0.00,VWS V14.01,2013-03-21 07:04:00,
2013-03-21 02:06:00,19.4,6.3,30.11,North,353,5.4,6.3,56,0.00,,CLR,0.00,VWS V14.01,2013-03-21 07:06:00,
2013-03-21 02:09:00,19.4,7.8,30.11,NNW,342,6.3,6.3,60,0.00,,CLR,0.00,VWS V14.01,2013-03-21 07:09:00,
2013-03-21 02:10:00,19.4,6.3,30.11,NNW,336,5.8,6.3,56,0.00,,CLR,0.00,VWS V14.01,2013-03-21 07:10:00,
2013-03-21 02:11:00,19.4,6.3,30.11,NNW,332,7.2,7.2,56,0.00,,CLR,0.00,VWS V14.01,2013-03-21 07:11:00,
2013-03-21 02:14:00,19.6,5.7,30.11,NNW,336,5.4,5.8,54,0.00,,CLR,0.00,VWS V14.01,2013-03-21 07:14:00,
2013-03-21 02:15:00,19.4,6.3,30.11,NNW,332,6.7,6.7,56,0.00,,CLR,0.00,VWS V14.01,2013-03-21 07:15:00,
2013-03-21 02:16:00,19.4,6.3,30.11,NNW,341,7.2,7.2,56,0.00,,CLR,0.00,VWS V14.01,2013-03-21 07:16:00,
2013-03-21 02:19:00,19.6,5.7,30.11,NNW,343,5.4,8.3,54,0.00,,CLR,0.00,VWS V14.01,2013-03-21 07:19:00,
2013-03-21 02:20:00,19.4,7.8,30.11,NNW,338,8.3,8.3,60,0.00,,CLR,0.00,VWS V14.01,2013-03-21 07:20:00,
2013-03-21 02:21:00,19.4,6.3,30.11,North,353,6.3,8.3,56,0.00,,CLR,0.00,VWS V14.01,2013-03-21 07:21:00,
2013-03-21 02:25:00,19.6,5.7,30.11,NNW,333,8.1,8.7,54,0.00,,CLR,0.00,VWS V14.01,2013-03-21 07:25:00,
2013-03-21 02:26:00,19.6,5.7,30.11,NNW,346,6.3,8.1,54,0.00,,CLR,0.00,VWS V14.01,2013-03-21 07:26:00,
2013-03-21 02:28:00,19.6,5.7,30.11,NNW,342,6.7,6.7,54,0.00,,CLR,0.00,VWS V14.01,2013-03-21 07:28:00,
2013-03-21 02:30:00,19.6,5.7,30.11,NNW,335,6.3,6.3,54,0.00,,CLR,0.00,VWS V14.01,2013-03-21 07:30:00,
2013-03-21 02:32:00,19.6,5.7,30.11,NNW,341,5.4,6.3,54,0.00,,CLR,0.00,VWS V14.01,2013-03-21 07:32:00,
2013-03-21 02:34:00,19.4,6.3,30.11,NNW,346,6.3,8.3,56,0.00,,CLR,0.00,VWS V14.01,2013-03-21 07:34:00,
2013-03-21 02:36:00,19.6,5.7,30.11,NNW,345,5.4,5.4,54,0.00,,CLR,0.00,VWS V14.01,2013-03-21 07:36:00,
2013-03-21 02:37:00,19.4,6.3,30.11,NW,317,4.0,4.0,56,0.00,,CLR,0.00,VWS V14.01,2013-03-21 07:37:00,
2013-03-21 02:40:00,19.4,6.3,30.11,North,353,5.4,5.4,56,0.00,,CLR,0.00,VWS V14.01,2013-03-21 07:40:00,
2013-03-21 02:41:00,19.2,6.1,30.11,North,350,5.8,5.8,56,0.00,,CLR,0.00,VWS V14.01,2013-03-21 07:41:00,
2013-03-21 02:42:00,19.2,7.6,30.11,North,357,5.4,5.8,60,0.00,,CLR,0.00,VWS V14.01,2013-03-21 07:42:00,
2013-03-21 02:43:00,19.2,7.6,30.11,North,353,5.8,5.8,60,0.00,,CLR,0.00,VWS V14.01,2013-03-21 07:43:00,
2013-03-21 02:46:00,19.0,7.4,30.11,North,0,8.7,8.7,60,0.00,,CLR,0.00,VWS V14.01,2013-03-21 07:46:00,
2013-03-21 02:47:00,19.0,7.4,30.11,North,353,5.4,5.4,60,0.00,,CLR,0.00,VWS V14.01,2013-03-21 07:47:00,
2013-03-21 02:48:00,19.0,7.4,30.11,North,350,6.3,6.3,60,0.00,,CLR,0.00,VWS V14.01,2013-03-21 07:48:00,
2013-03-21 02:51:00,19.0,7.4,30.11,NNW,338,7.2,7.2,60,0.00,,CLR,0.00,VWS V14.01,2013-03-21 07:51:00,
2013-03-21 02:53:00,19.0,7.4,30.11,NNW,339,5.4,5.8,60,0.00,,CLR,0.00,VWS V14.01,2013-03-21 07:53:00,
2013-03-21 02:57:00,18.9,7.3,30.11,NNW,345,6.3,6.3,60,0.00,,CLR,0.00,VWS V14.01,2013-03-21 07:57:00,
2013-03-21 02:58:00,19.0,7.4,30.11,NNW,338,6.7,6.7,60,0.00,,CLR,0.00,VWS V14.01,2013-03-21 07:58:00,
2013-03-21 02:59:00,19.0,7.4,30.11,North,353,5.8,6.7,60,0.00,,CLR,0.00,VWS V14.01,2013-03-21 07:59:00,
2013-03-21 03:03:00,19.0,7.4,30.11,North,357,8.7,8.7,60,0.00,,CLR,0.00,VWS V14.01,2013-03-21 08:03:00,
2013-03-21 03:04:00,19.0,9.6,30.11,North,0,6.3,8.7,66,0.00,,CLR,0.00,VWS V14.01,2013-03-21 08:04:00,
2013-03-21 03:08:00,19.0,9.6,30.11,North,353,5.8,7.6,66,0.00,,CLR,0.00,VWS V14.01,2013-03-21 08:08:00,
2013-03-21 03:09:00,19.0,9.6,30.11,North,349,7.6,7.6,66,0.00,,CLR,0.00,VWS V14.01,2013-03-21 08:09:00,
2013-03-21 03:13:00,19.0,9.6,30.11,North,2,8.3,11.0,66,0.00,,CLR,0.00,VWS V14.01,2013-03-21 08:13:00,
2013-03-21 03:14:00,19.0,9.6,30.11,North,357,8.7,8.7,66,0.00,,CLR,0.00,VWS V14.01,2013-03-21 08:14:00,
2013-03-21 03:15:00,19.2,9.7,30.11,North,2,6.3,8.7,66,0.00,,CLR,0.00,VWS V14.01,2013-03-21 08:15:00,
2013-03-21 03:19:00,19.2,9.7,30.11,North,1,7.6,8.1,66,0.00,,CLR,0.00,VWS V14.01,2013-03-21 08:19:00,
2013-03-21 03:20:00,19.2,9.7,30.11,NNE,20,11.0,11.0,66,0.00,,CLR,0.00,VWS V14.01,2013-03-21 08:20:00,
2013-03-21 03:22:00,19.4,7.8,30.11,North,353,7.6,11.0,60,0.00,,CLR,0.00,VWS V14.01,2013-03-21 08:22:00,
2013-03-21 03:24:00,19.6,5.7,30.11,North,6,11.4,13.2,54,0.00,,CLR,0.00,VWS V14.01,2013-03-21 08:24:00,
2013-03-21 03:25:00,19.6,5.7,30.11,North,10,10.5,15.4,54,0.00,,CLR,0.00,VWS V14.01,2013-03-21 08:25:00,
2013-03-21 03:27:00,19.6,5.7,30.11,North,353,12.3,14.5,54,0.00,,CLR,0.00,VWS V14.01,2013-03-21 08:27:00,
2013-03-21 03:30:00,19.6,5.7,30.11,NNW,348,10.5,12.8,54,0.00,,CLR,0.00,VWS V14.01,2013-03-21 08:30:00,
2013-03-21 03:31:00,19.8,5.8,30.11,NNE,15,15.0,15.0,54,0.00,,CLR,0.00,VWS V14.01,2013-03-21 08:31:00,
2013-03-21 03:32:00,19.6,4.0,30.11,North,9,12.8,13.2,50,0.00,,CLR,0.00,VWS V14.01,2013-03-21 08:32:00,
2013-03-21 03:35:00,19.8,4.1,30.11,NE,41,15.0,15.0,50,0.00,,CLR,0.00,VWS V14.01,2013-03-21 08:35:00,
2013-03-21 03:36:00,19.8,4.1,30.11,North,0,10.5,15.0,50,0.00,,CLR,0.00,VWS V14.01,2013-03-21 08:36:00,
2013-03-21 03:37:00,19.6,4.0,30.11,North,8,10.5,11.4,50,0.00,,CLR,0.00,VWS V14.01,2013-03-21 08:37:00,
2013-03-21 03:38:00,19.6,4.0,30.11,North,357,10.5,11.4,50,0.00,,CLR,0.00,VWS V14.01,2013-03-21 08:38:00,
2013-03-21 03:41:00,19.4,3.8,30.11,NNE,16,10.1,11.0,50,0.00,,CLR,0.00,VWS V14.01,2013-03-21 08:41:00,
2013-03-21 03:42:00,19.4,3.8,30.11,North,0,10.5,12.8,50,0.00,,CLR,0.00,VWS V14.01,2013-03-21 08:42:00,
2013-03-21 03:44:00,19.4,3.8,30.11,North,11,12.3,12.3,50,0.00,,CLR,0.00,VWS V14.01,2013-03-21 08:44:00,
2013-03-21 03:46:00,19.4,3.8,30.11,NNE,19,11.4,11.4,50,0.00,,CLR,0.00,VWS V14.01,2013-03-21 08:46:00,
2013-03-21 03:47:00,19.4,3.8,30.11,North,11,11.0,12.8,50,0.00,,CLR,0.00,VWS V14.01,2013-03-21 08:47:00,
2013-03-21 03:48:00,19.4,3.8,30.11,NE,44,8.7,11.0,50,0.00,,CLR,0.00,VWS V14.01,2013-03-21 08:48:00,
2013-03-21 03:51:00,19.2,3.6,30.11,North,9,10.1,11.0,50,0.00,,CLR,0.00,VWS V14.01,2013-03-21 08:51:00,
2013-03-21 03:52:00,19.2,3.6,30.11,NNE,27,10.5,11.0,50,0.00,,CLR,0.00,VWS V14.01,2013-03-21 08:52:00,
2013-03-21 03:54:00,19.2,3.6,30.11,NNE,14,8.7,8.7,50,0.00,,CLR,0.00,VWS V14.01,2013-03-21 08:54:00,
2013-03-21 03:57:00,18.9,5.8,30.11,North,357,8.1,10.1,56,0.00,,CLR,0.00,VWS V14.01,2013-03-21 08:57:00,
2013-03-21 03:58:00,18.9,3.3,30.11,North,353,12.3,12.3,50,0.00,,CLR,0.00,VWS V14.01,2013-03-21 08:58:00,
2013-03-21 03:59:00,18.7,3.1,30.11,NNE,17,11.0,12.3,50,0.00,,CLR,0.00,VWS V14.01,2013-03-21 08:59:00,
2013-03-21 04:02:00,18.7,3.1,30.11,North,7,10.1,10.5,50,0.00,,CLR,0.00,VWS V14.01,2013-03-21 09:02:00,
2013-03-21 04:03:00,18.7,3.1,30.11,North,357,5.8,7.6,50,0.00,,CLR,0.00,VWS V14.01,2013-03-21 09:03:00,
2013-03-21 04:04:00,18.7,3.1,30.11,North,0,8.7,8.7,50,0.00,,CLR,0.00,VWS V14.01,2013-03-21 09:04:00,
2013-03-21 04:08:00,18.7,3.1,30.11,North,353,11.0,11.0,50,0.00,,CLR,0.00,VWS V14.01,2013-03-21 09:08:00,
2013-03-21 04:09:00,18.7,3.1,30.11,North,353,8.3,11.0,50,0.00,,CLR,0.00,VWS V14.01,2013-03-21 09:09:00,
2013-03-21 04:10:00,18.7,3.1,30.11,NNE,16,13.2,13.2,50,0.00,,CLR,0.00,VWS V14.01,2013-03-21 09:10:00,
2013-03-21 04:13:00,18.5,3.0,30.11,North,3,8.3,8.3,50,0.00,,CLR,0.00,VWS V14.01,2013-03-21 09:13:00,
2013-03-21 04:14:00,18.5,3.0,30.11,North,357,10.5,10.5,50,0.00,,CLR,0.00,VWS V14.01,2013-03-21 09:14:00,
2013-03-21 04:15:00,18.5,3.0,30.11,North,11,12.3,12.3,50,0.00,,CLR,0.00,VWS V14.01,2013-03-21 09:15:00,
2013-03-21 04:19:00,18.5,3.0,30.11,North,5,10.1,10.1,50,0.00,,CLR,0.00,VWS V14.01,2013-03-21 09:19:00,
2013-03-21 04:20:00,18.5,3.0,30.11,NNW,342,7.2,10.1,50,0.00,,CLR,0.00,VWS V14.01,2013-03-21 09:20:00,
2013-03-21 04:21:00,18.5,3.0,30.11,North,7,10.5,10.5,50,0.00,,CLR,0.00,VWS V14.01,2013-03-21 09:21:00,
2013-03-21 04:25:00,18.5,3.0,30.11,North,357,8.1,9.6,50,0.00,,CLR,0.00,VWS V14.01,2013-03-21 09:25:00,
2013-03-21 04:26:00,18.3,2.8,30.11,North,2,8.1,8.3,50,0.00,,CLR,0.00,VWS V14.01,2013-03-21 09:26:00,
2013-03-21 04:27:00,18.3,2.8,30.11,North,4,8.3,8.3,50,0.00,,CLR,0.00,VWS V14.01,2013-03-21 09:27:00,
2013-03-21 04:30:00,18.1,2.6,30.11,North,5,8.1,8.1,50,0.00,,CLR,0.00,VWS V14.01,2013-03-21 09:30:00,
2013-03-21 04:32:00,18.1,2.6,30.11,NNE,16,6.3,8.1,50,0.00,,CLR,0.00,VWS V14.01,2013-03-21 09:32:00,
2013-03-21 04:33:00,18.1,2.6,30.11,NNE,27,8.7,10.1,50,0.00,,CLR,0.00,VWS V14.01,2013-03-21 09:33:00,
2013-03-21 04:35:00,18.0,2.5,30.11,NNE,19,6.7,7.6,50,0.00,,CLR,0.00,VWS V14.01,2013-03-21 09:35:00,
2013-03-21 04:36:00,18.0,2.5,30.11,NNE,16,8.1,8.1,50,0.00,,CLR,0.00,VWS V14.01,2013-03-21 09:36:00,
2013-03-21 04:37:00,17.8,2.3,30.11,NNE,13,6.3,8.3,50,0.00,,CLR,0.00,VWS V14.01,2013-03-21 09:37:00,
2013-03-21 04:39:00,17.8,2.3,30.08,NNE,20,5.4,6.3,50,0.00,,CLR,0.00,VWS V14.01,2013-03-21 09:39:00,
2013-03-21 04:40:00,17.6,3.0,30.08,North,5,5.4,5.4,52,0.00,,CLR,0.00,VWS V14.01,2013-03-21 09:40:00,
2013-03-21 04:41:00,17.6,3.0,30.08,NNE,31,4.5,5.4,52,0.00,,CLR,0.00,VWS V14.01,2013-03-21 09:41:00,
2013-03-21 04:42:00,17.4,2.8,30.08,North,8,5.4,5.4,52,0.00,,CLR,0.00,VWS V14.01,2013-03-21 09:42:00,
2013-03-21 04:44:00,17.2,4.2,30.08,North,4,4.9,5.4,56,0.00,,CLR,0.00,VWS V14.01,2013-03-21 09:44:00,
2013-03-21 04:46:00,17.1,4.1,30.08,North,6,4.5,5.8,56,0.00,,CLR,0.00,VWS V14.01,2013-03-21 09:46:00,
2013-03-21 04:48:00,16.9,3.9,30.08,NNE,19,4.0,4.0,56,0.00,,CLR,0.00,VWS V14.01,2013-03-21 09:48:00,
2013-03-21 04:50:00,16.7,3.7,30.08,NNE,18,4.0,4.9,56,0.00,,CLR,0.00,VWS V14.01,2013-03-21 09:50:00,
2013-03-21 04:51:00,16.7,3.7,30.08,NNE,19,3.6,4.9,56,0.00,,CLR,0.00,VWS V14.01,2013-03-21 09:51:00,
2013-03-21 04:54:00,16.7,3.7,30.11,NNE,18,3.6,4.0,56,0.00,,CLR,0.00,VWS V14.01,2013-03-21 09:54:00,
2013-03-21 04:56:00,16.5,3.6,30.11,NNE,22,3.6,4.0,56,0.00,,CLR,0.00,VWS V14.01,2013-03-21 09:56:00,
2013-03-21 04:57:00,16.5,3.6,30.11,NNE,20,5.4,5.4,56,0.00,,CLR,0.00,VWS V14.01,2013-03-21 09:57:00,
2013-03-21 04:59:00,16.3,3.4,30.11,NNE,18,4.0,5.8,56,0.00,,CLR,0.00,VWS V14.01,2013-03-21 09:59:00,
2013-03-21 05:01:00,16.3,3.4,30.11,NNE,26,4.0,4.9,56,0.00,,CLR,0.00,VWS V14.01,2013-03-21 10:01:00,
2013-03-21 05:02:00,16.2,3.2,30.11,NNE,24,3.1,4.9,56,0.00,,CLR,0.00,VWS V14.01,2013-03-21 10:02:00,
2013-03-21 05:03:00,16.2,3.2,30.11,NE,37,2.7,4.9,56,0.00,,CLR,0.00,VWS V14.01,2013-03-21 10:03:00,
2013-03-21 05:04:00,16.2,3.2,30.11,NNE,23,5.4,5.8,56,0.00,,CLR,0.00,VWS V14.01,2013-03-21 10:04:00,
2013-03-21 05:06:00,16.2,3.2,30.11,NNE,27,4.0,4.0,56,0.00,,CLR,0.00,VWS V14.01,2013-03-21 10:06:00,
2013-03-21 05:07:00,16.2,3.2,30.11,NNE,16,5.4,7.2,56,0.00,,CLR,0.00,VWS V14.01,2013-03-21 10:07:00,
2013-03-21 05:08:00,16.2,5.4,30.08,NNE,23,5.4,5.4,62,0.00,,CLR,0.00,VWS V14.01,2013-03-21 10:08:00,
2013-03-21 05:09:00,16.2,5.4,30.08,NNE,14,3.6,5.4,62,0.00,,CLR,0.00,VWS V14.01,2013-03-21 10:09:00,
2013-03-21 05:11:00,16.2,5.4,30.08,NE,50,4.9,5.8,62,0.00,,CLR,0.00,VWS V14.01,2013-03-21 10:11:00,
2013-03-21 05:12:00,16.2,5.4,30.08,NNE,31,4.0,4.9,62,0.00,,CLR,0.00,VWS V14.01,2013-03-21 10:12:00,
2013-03-21 05:13:00,16.2,5.4,30.08,NNE,23,3.6,5.4,62,0.00,,CLR,0.00,VWS V14.01,2013-03-21 10:13:00,
2013-03-21 05:15:00,16.2,5.4,30.08,NNE,25,3.1,3.1,62,0.00,,CLR,0.00,VWS V14.01,2013-03-21 10:15:00,
2013-03-21 05:17:00,16.2,5.4,30.08,NNE,16,5.8,5.8,62,0.00,,CLR,0.00,VWS V14.01,2013-03-21 10:17:00,
2013-03-21 05:19:00,16.2,5.4,30.08,NNE,23,3.1,6.3,62,0.00,,CLR,0.00,VWS V14.01,2013-03-21 10:19:00,
2013-03-21 05:20:00,16.2,5.4,30.08,NE,38,5.8,6.3,62,0.00,,CLR,0.00,VWS V14.01,2013-03-21 10:20:00,
2013-03-21 05:23:00,16.2,5.4,30.08,NNE,24,4.0,6.3,62,0.00,,CLR,0.00,VWS V14.01,2013-03-21 10:23:00,
2013-03-21 05:24:00,16.2,5.4,30.11,NNE,12,4.0,4.9,62,0.00,,CLR,0.00,VWS V14.01,2013-03-21 10:24:00,
2013-03-21 05:26:00,16.2,5.4,30.11,NNE,29,3.6,6.3,62,0.00,,CLR,0.00,VWS V14.01,2013-03-21 10:26:00,
2013-03-21 05:28:00,16.2,5.4,30.11,North,9,6.3,6.3,62,0.00,,CLR,0.00,VWS V14.01,2013-03-21 10:28:00,
2013-03-21 05:29:00,16.2,5.4,30.11,NNE,17,6.3,6.3,62,0.00,,CLR,0.00,VWS V14.01,2013-03-21 10:29:00,
2013-03-21 05:31:00,16.2,5.4,30.11,NNE,18,5.8,6.3,62,0.00,,CLR,0.00,VWS V14.01,2013-03-21 10:31:00,
2013-03-21 05:33:00,16.0,5.3,30.11,NNE,22,5.8,5.8,62,0.00,,CLR,0.00,VWS V14.01,2013-03-21 10:33:00,
2013-03-21 05:34:00,16.0,5.3,30.11,NNE,25,4.9,5.8,62,0.00,,CLR,0.00,VWS V14.01,2013-03-21 10:34:00,
2013-03-21 05:37:00,16.0,5.3,30.11,NNE,26,3.6,4.0,62,0.00,,CLR,0.00,VWS V14.01,2013-03-21 10:37:00,
2013-03-21 05:39:00,16.0,5.3,30.11,NNE,22,4.9,5.8,62,0.00,,CLR,0.00,VWS V14.01,2013-03-21 10:39:00,
2013-03-21 05:40:00,16.0,5.3,30.11,NNE,30,4.9,4.9,62,0.00,,CLR,0.00,VWS V14.01,2013-03-21 10:40:00,
2013-03-21 05:43:00,15.8,5.1,30.11,NNE,16,4.0,4.0,62,0.00,,CLR,0.00,VWS V14.01,2013-03-21 10:43:00,
2013-03-21 05:44:00,15.8,5.1,30.11,NNE,15,2.7,4.0,62,0.00,,CLR,0.00,VWS V14.01,2013-03-21 10:44:00,
2013-03-21 05:45:00,15.8,5.1,30.11,NNE,17,3.1,3.1,62,0.00,,CLR,0.00,VWS V14.01,2013-03-21 10:45:00,
2013-03-21 05:46:00,15.8,5.1,30.11,NNE,17,3.6,4.0,62,0.00,,CLR,0.00,VWS V14.01,2013-03-21 10:46:00,
2013-03-21 05:49:00,15.6,4.9,30.11,NNE,16,2.7,4.0,62,0.00,,CLR,0.00,VWS V14.01,2013-03-21 10:49:00,
2013-03-21 05:50:00,15.4,4.8,30.11,NNE,18,0.0,3.6,62,0.00,,CLR,0.00,VWS V14.01,2013-03-21 10:50:00,
2013-03-21 05:52:00,15.4,4.8,30.11,NNE,18,2.7,3.1,62,0.00,,CLR,0.00,VWS V14.01,2013-03-21 10:52:00,
2013-03-21 05:54:00,15.3,4.6,30.11,NNE,18,2.2,2.7,62,0.00,,CLR,0.00,VWS V14.01,2013-03-21 10:54:00,
2013-03-21 05:55:00,15.3,4.6,30.11,NNE,18,0.0,0.0,62,0.00,,CLR,0.00,VWS V14.01,2013-03-21 10:55:00,
2013-03-21 05:58:00,14.9,4.2,30.11,NNE,18,0.0,0.0,62,0.00,,CLR,0.00,VWS V14.01,2013-03-21 10:58:00,
2013-03-21 06:00:00,14.7,4.1,30.11,NNE,18,0.0,0.0,62,0.00,,CLR,0.00,VWS V14.01,2013-03-21 11:00:00,
2013-03-21 06:01:00,14.5,3.9,30.11,NNE,18,0.0,0.0,62,0.00,,CLR,0.00,VWS V14.01,2013-03-21 11:01:00,
2013-03-21 06:03:00,14.4,3.7,30.11,NNE,18,0.0,0.0,62,0.00,,CLR,0.00,VWS V14.01,2013-03-21 11:03:00,
2013-03-21 06:05:00,14.2,3.6,30.11,NNE,18,0.0,0.0,62,0.00,,CLR,0.00,VWS V14.01,2013-03-21 11:05:00,
2013-03-21 06:06:00,14.2,3.6,30.11,NNE,18,0.0,0.0,62,0.00,,CLR,0.00,VWS V14.01,2013-03-21 11:06:00,
2013-03-21 06:08:00,13.8,3.9,30.11,NNE,18,0.0,0.0,64,0.00,,CLR,0.00,VWS V14.01,2013-03-21 11:08:00,
2013-03-21 06:12:00,13.8,3.9,30.11,NNE,18,0.0,0.0,64,0.00,,CLR,0.00,VWS V14.01,2013-03-21 11:12:00,
2013-03-21 06:14:00,13.6,3.7,30.11,NNE,18,0.0,0.0,64,0.00,,CLR,0.00,VWS V14.01,2013-03-21 11:14:00,
2013-03-21 06:17:00,13.6,3.7,30.11,North,10,3.1,3.1,64,0.00,,CLR,0.00,VWS V14.01,2013-03-21 11:17:00,
2013-03-21 06:18:00,13.8,3.9,30.11,North,0,3.1,3.1,64,0.00,,CLR,0.00,VWS V14.01,2013-03-21 11:18:00,
2013-03-21 06:20:00,14.0,6.0,30.11,North,0,2.7,3.1,70,0.00,,CLR,0.00,VWS V14.01,2013-03-21 11:20:00,
2013-03-21 06:22:00,14.2,6.2,30.11,North,0,2.2,2.2,70,0.00,,CLR,0.00,VWS V14.01,2013-03-21 11:22:00,
2013-03-21 06:23:00,14.2,6.2,30.11,North,0,2.7,2.7,70,0.00,,CLR,0.00,VWS V14.01,2013-03-21 11:23:00,
2013-03-21 06:25:00,14.2,6.2,30.11,North,0,4.9,4.9,70,0.00,,CLR,0.00,VWS V14.01,2013-03-21 11:25:00,
2013-03-21 06:28:00,14.4,6.4,30.11,North,7,3.6,6.3,70,0.00,,CLR,0.00,VWS V14.01,2013-03-21 11:28:00,
2013-03-21 06:29:00,14.4,6.4,30.11,North,6,5.8,5.8,70,0.00,,CLR,0.00,VWS V14.01,2013-03-21 11:29:00,
2013-03-21 06:30:00,14.5,6.6,30.11,North,6,3.1,4.9,70,0.00,,CLR,0.00,VWS V14.01,2013-03-21 11:30:00,
2013-03-21 06:33:00,14.7,6.7,30.11,NNE,28,4.0,5.8,70,0.00,,CLR,0.00,VWS V14.01,2013-03-21 11:33:00,
2013-03-21 06:34:00,14.7,6.1,30.11,NNE,33,5.4,5.4,68,0.00,,CLR,0.00,VWS V14.01,2013-03-21 11:34:00,
2013-03-21 06:35:00,14.9,6.3,30.11,NNE,13,4.0,4.0,68,0.00,,CLR,0.00,VWS V14.01,2013-03-21 11:35:00,
2013-03-21 06:38:00,14.7,6.1,30.11,NNE,12,4.0,4.0,68,0.00,,CLR,0.00,VWS V14.01,2013-03-21 11:38:00,
2013-03-21 06:39:00,14.7,6.1,30.11,NNE,12,3.1,4.0,68,0.00,,CLR,0.00,VWS V14.01,2013-03-21 11:39:00,
2013-03-21 06:41:00,14.7,6.1,30.11,NNE,18,2.7,2.7,68,0.00,,CLR,0.00,VWS V14.01,2013-03-21 11:41:00,
2013-03-21 06:43:00,14.5,5.9,30.11,NNE,23,3.1,3.6,68,0.00,,CLR,0.00,VWS V14.01,2013-03-21 11:43:00,
2013-03-21 06:44:00,14.5,5.9,30.11,NNE,23,2.7,3.6,68,0.00,,CLR,0.00,VWS V14.01,2013-03-21 11:44:00,
2013-03-21 06:45:00,14.5,5.9,30.11,NNE,14,2.7,4.0,68,0.00,,CLR,0.00,VWS V14.01,2013-03-21 11:45:00,
2013-03-21 06:48:00,14.2,5.6,30.11,NNE,16,3.1,3.6,68,0.00,,CLR,0.00,VWS V14.01,2013-03-21 11:48:00,
2013-03-21 06:49:00,14.2,5.6,30.11,NNE,16,3.6,3.6,68,0.00,,CLR,0.00,VWS V14.01,2013-03-21 11:49:00,
2013-03-21 06:50:00,14.2,5.6,30.11,NNE,26,4.0,4.0,68,0.00,,CLR,0.00,VWS V14.01,2013-03-21 11:50:00,
2013-03-21 06:53:00,14.2,5.6,30.11,NNE,15,2.7,4.0,68,0.00,,CLR,0.00,VWS V14.01,2013-03-21 11:53:00,
2013-03-21 06:54:00,14.2,5.6,30.11,NNE,16,2.7,4.0,68,0.00,,CLR,0.00,VWS V14.01,2013-03-21 11:54:00,
2013-03-21 06:55:00,14.2,5.6,30.11,NE,34,2.2,3.1,68,0.00,,CLR,0.00,VWS V14.01,2013-03-21 11:55:00,
2013-03-21 06:58:00,13.8,5.2,30.11,NE,34,0.0,0.0,68,0.00,,CLR,0.00,VWS V14.01,2013-03-21 11:58:00,
2013-03-21 06:59:00,13.8,5.2,30.11,NNE,33,0.0,0.0,68,0.00,,CLR,0.00,VWS V14.01,2013-03-21 11:59:00,
2013-03-21 07:01:00,13.8,5.2,30.11,NNE,33,0.0,0.0,68,0.00,,CLR,0.00,VWS V14.01,2013-03-21 12:01:00,
2013-03-21 07:04:00,13.6,5.1,30.11,NE,34,0.0,0.0,68,0.00,,CLR,0.00,VWS V14.01,2013-03-21 12:04:00,
2013-03-21 07:07:00,13.6,5.1,30.11,NE,34,0.0,0.0,68,0.00,,CLR,0.00,VWS V14.01,2013-03-21 12:07:00,
2013-03-21 07:09:00,13.6,5.1,30.11,NE,34,0.0,0.0,68,0.00,,CLR,0.00,VWS V14.01,2013-03-21 12:09:00,
2013-03-21 07:10:00,13.6,5.1,30.11,NE,34,0.0,0.0,68,0.00,,CLR,0.00,VWS V14.01,2013-03-21 12:10:00,
2013-03-21 07:12:00,13.6,5.1,30.11,NNE,33,0.0,0.0,68,0.00,,CLR,0.00,VWS V14.01,2013-03-21 12:12:00,
2013-03-21 07:14:00,13.5,4.9,30.11,NE,34,0.0,0.0,68,0.00,,CLR,0.00,VWS V14.01,2013-03-21 12:14:00,
2013-03-21 07:15:00,13.5,4.9,30.11,NE,34,0.0,0.0,68,0.00,,CLR,0.00,VWS V14.01,2013-03-21 12:15:00,
2013-03-21 07:17:00,13.5,4.9,30.11,NE,34,0.0,0.0,68,0.00,,CLR,0.00,VWS V14.01,2013-03-21 12:17:00,
2013-03-21 07:20:00,13.5,4.9,30.11,NE,34,0.0,0.0,68,0.00,,CLR,0.00,VWS V14.01,2013-03-21 12:20:00,
2013-03-21 07:23:00,13.5,4.9,30.11,NNE,33,0.0,0.0,68,0.00,,CLR,0.00,VWS V14.01,2013-03-21 12:23:00,
2013-03-21 07:25:00,13.5,4.9,30.11,NE,34,0.0,0.0,68,0.00,,CLR,0.00,VWS V14.01,2013-03-21 12:25:00,
2013-03-21 07:26:00,13.5,4.9,30.11,NE,34,0.0,0.0,68,0.00,,CLR,0.00,VWS V14.01,2013-03-21 12:26:00,
2013-03-21 07:29:00,13.3,4.7,30.11,NE,34,0.0,0.0,68,0.00,,CLR,0.00,VWS V14.01,2013-03-21 12:29:00,
2013-03-21 07:30:00,13.3,4.7,30.11,NE,34,0.0,0.0,68,0.00,,CLR,0.00,VWS V14.01,2013-03-21 12:30:00,
2013-03-21 07:31:00,13.3,4.7,30.11,NNE,33,0.0,0.0,68,0.00,,CLR,0.00,VWS V14.01,2013-03-21 12:31:00,
2013-03-21 07:34:00,13.3,4.7,30.11,NE,34,0.0,0.0,68,0.00,,CLR,0.00,VWS V14.01,2013-03-21 12:34:00,
2013-03-21 07:36:00,13.5,4.9,30.11,NE,34,0.0,0.0,68,0.00,,CLR,0.00,VWS V14.01,2013-03-21 12:36:00,
2013-03-21 07:37:00,13.5,4.9,30.11,NE,34,0.0,0.0,68,0.00,,CLR,0.00,VWS V14.01,2013-03-21 12:37:00,
2013-03-21 07:38:00,13.5,4.9,30.11,NE,34,0.0,0.0,68,0.00,,CLR,0.00,VWS V14.01,2013-03-21 12:38:00,
2013-03-21 07:40:00,13.5,4.9,30.11,NE,34,0.0,0.0,68,0.00,,CLR,0.00,VWS V14.01,2013-03-21 12:40:00,
2013-03-21 07:41:00,13.6,5.1,30.11,NE,34,0.0,0.0,68,0.00,,CLR,0.00,VWS V14.01,2013-03-21 12:41:00,
2013-03-21 07:43:00,13.8,5.2,30.11,NE,34,0.0,0.0,68,0.00,,CLR,0.00,VWS V14.01,2013-03-21 12:43:00,
2013-03-21 07:44:00,13.8,5.2,30.11,NNE,33,0.0,0.0,68,0.00,,CLR,0.00,VWS V14.01,2013-03-21 12:44:00,
2013-03-21 07:45:00,14.0,6.7,30.11,NE,34,0.0,0.0,72,0.00,,CLR,0.00,VWS V14.01,2013-03-21 12:45:00,
2013-03-21 07:47:00,14.2,6.2,30.11,NE,34,0.0,0.0,70,0.00,,CLR,0.00,VWS V14.01,2013-03-21 12:47:00,
2013-03-21 07:48:00,14.2,6.2,30.11,NE,34,0.0,0.0,70,0.00,,CLR,0.00,VWS V14.01,2013-03-21 12:48:00,
2013-03-21 07:50:00,14.4,7.0,30.11,NNE,33,3.1,3.1,72,0.00,,CLR,0.00,VWS V14.01,2013-03-21 12:50:00,
2013-03-21 07:52:00,14.5,7.2,30.11,NE,34,0.0,0.0,72,0.00,,CLR,0.00,VWS V14.01,2013-03-21 12:52:00,
2013-03-21 07:53:00,14.5,7.2,30.11,NE,34,0.0,0.0,72,0.00,,CLR,0.00,VWS V14.01,2013-03-21 12:53:00,
2013-03-21 07:57:00,15.1,7.1,30.11,NE,34,0.0,0.0,70,0.00,,CLR,0.00,VWS V14.01,2013-03-21 12:57:00,
2013-03-21 07:58:00,15.1,7.1,30.11,NE,34,0.0,0.0,70,0.00,,CLR,0.00,VWS V14.01,2013-03-21 12:58:00,
2013-03-21 07:59:00,15.3,7.2,30.11,NE,34,0.0,0.0,70,0.00,,CLR,0.00,VWS V14.01,2013-03-21 12:59:00,
2013-03-21 08:02:00,15.4,7.4,30.11,NE,34,0.0,0.0,70,0.00,,CLR,0.00,VWS V14.01,2013-03-21 13:02:00,
2013-03-21 08:03:00,15.6,7.6,30.11,NE,34,0.0,0.0,70,0.00,,CLR,0.00,VWS V14.01,2013-03-21 13:03:00,
2013-03-21 08:04:00,15.8,7.8,30.11,NE,34,0.0,0.0,70,0.00,,CLR,0.00,VWS V14.01,2013-03-21 13:04:00,
2013-03-21 08:07:00,16.0,7.3,30.11,NNE,33,0.0,0.0,68,0.00,,CLR,0.00,VWS V14.01,2013-03-21 13:07:00,
2013-03-21 08:08:00,16.0,7.3,30.11,NE,34,0.0,0.0,68,0.00,,CLR,0.00,VWS V14.01,2013-03-21 13:08:00,
2013-03-21 08:09:00,16.0,7.3,30.11,NE,34,0.0,0.0,68,0.00,,CLR,0.00,VWS V14.01,2013-03-21 13:09:00,
2013-03-21 08:13:00,16.2,7.5,30.11,North,353,2.2,2.2,68,0.00,,CLR,0.00,VWS V14.01,2013-03-21 13:13:00,
2013-03-21 08:14:00,16.3,7.0,30.11,North,353,2.7,2.7,66,0.00,,CLR,0.00,VWS V14.01,2013-03-21 13:14:00,
2013-03-21 08:15:00,16.3,7.0,30.11,North,353,4.0,4.0,66,0.00,,CLR,0.00,VWS V14.01,2013-03-21 13:15:00,
2013-03-21 08:18:00,16.5,5.8,30.11,North,353,3.1,3.1,62,0.00,,CLR,0.00,VWS V14.01,2013-03-21 13:18:00,
2013-03-21 08:20:00,16.7,6.0,30.11,North,353,0.0,2.7,62,0.00,,CLR,0.00,VWS V14.01,2013-03-21 13:20:00,
2013-03-21 08:21:00,16.7,6.0,30.11,North,353,0.0,0.0,62,0.00,,CLR,0.00,VWS V14.01,2013-03-21 13:21:00,
2013-03-21 08:23:00,16.9,6.1,30.11,North,353,0.0,0.0,62,0.00,,CLR,0.00,VWS V14.01,2013-03-21 13:23:00,
2013-03-21 08:25:00,16.9,6.1,30.11,NNE,21,5.8,5.8,62,0.00,,CLR,0.00,VWS V14.01,2013-03-21 13:25:00,
2013-03-21 08:26:00,16.9,7.5,30.11,North,8,3.1,6.3,66,0.00,,CLR,0.00,VWS V14.01,2013-03-21 13:26:00,
2013-03-21 08:28:00,17.1,6.3,30.11,North,8,2.7,2.7,62,0.00,,CLR,0.00,VWS V14.01,2013-03-21 13:28:00,
2013-03-21 08:30:00,17.2,6.5,30.11,NNE,28,0.0,3.1,62,0.00,,CLR,0.00,VWS V14.01,2013-03-21 13:30:00,
2013-03-21 08:31:00,17.2,6.5,30.11,NNE,28,0.0,3.1,62,0.00,,CLR,0.00,VWS V14.01,2013-03-21 13:31:00,
2013-03-21 08:33:00,17.4,6.6,30.11,NNE,30,0.0,0.0,62,0.00,,CLR,0.00,VWS V14.01,2013-03-21 13:33:00,
2013-03-21 08:36:00,17.6,4.6,30.11,NNE,18,4.5,4.9,56,0.00,,CLR,0.00,VWS V14.01,2013-03-21 13:36:00,
2013-03-21 08:38:00,17.8,4.8,30.11,NNE,14,2.2,3.1,56,0.00,,CLR,0.00,VWS V14.01,2013-03-21 13:38:00,
2013-03-21 08:41:00,18.0,4.9,30.11,NNE,28,3.6,4.5,56,0.00,,CLR,0.00,VWS V14.01,2013-03-21 13:41:00,
2013-03-21 08:42:00,18.1,5.1,30.11,NNE,28,0.0,4.0,56,0.00,,CLR,0.00,VWS V14.01,2013-03-21 13:42:00,
2013-03-21 08:44:00,18.3,5.3,30.11,NNE,28,0.0,0.0,56,0.00,,CLR,0.00,VWS V14.01,2013-03-21 13:44:00,
2013-03-21 08:46:00,18.7,5.6,30.11,NNE,28,0.0,0.0,56,0.00,,CLR,0.00,VWS V14.01,2013-03-21 13:46:00,
2013-03-21 08:47:00,18.7,5.6,30.11,NNE,28,0.0,0.0,56,0.00,,CLR,0.00,VWS V14.01,2013-03-21 13:47:00,
2013-03-21 08:48:00,18.9,5.8,30.11,NNE,28,0.0,0.0,56,0.00,,CLR,0.00,VWS V14.01,2013-03-21 13:48:00,
2013-03-21 08:50:00,19.2,3.6,30.11,NE,37,3.6,3.6,50,0.00,,CLR,0.00,VWS V14.01,2013-03-21 13:50:00,
2013-03-21 08:52:00,19.8,5.8,30.11,NE,35,3.1,3.6,54,0.00,,CLR,0.00,VWS V14.01,2013-03-21 13:52:00,
2013-03-21 08:53:00,20.1,6.2,30.11,ENE,75,4.0,4.0,54,0.00,,CLR,0.00,VWS V14.01,2013-03-21 13:53:00,
2013-03-21 08:57:00,20.5,4.8,30.11,ENE,77,0.0,0.0,50,0.00,,CLR,0.00,VWS V14.01,2013-03-21 13:57:00,
2013-03-21 08:58:00,20.7,5.0,30.11,NE,40,2.7,6.3,50,0.00,,CLR,0.00,VWS V14.01,2013-03-21 13:58:00,
2013-03-21 08:59:00,20.8,5.1,30.11,NNE,28,3.6,6.3,50,0.00,,CLR,0.00,VWS V14.01,2013-03-21 13:59:00,
2013-03-21 09:02:00,20.7,5.0,30.11,North,357,3.6,4.0,50,0.00,,CLR,0.00,VWS V14.01,2013-03-21 14:02:00,
2013-03-21 09:04:00,20.7,5.0,30.11,North,357,2.7,4.0,50,0.00,,CLR,0.00,VWS V14.01,2013-03-21 14:04:00,
2013-03-21 09:05:00,20.5,4.8,30.11,North,357,2.7,2.7,50,0.00,,CLR,0.00,VWS V14.01,2013-03-21 14:05:00,
2013-03-21 09:07:00,20.5,4.8,30.11,North,357,4.0,4.0,50,0.00,,CLR,0.00,VWS V14.01,2013-03-21 14:07:00,
2013-03-21 09:08:00,20.5,4.8,30.11,North,0,4.0,4.0,50,0.00,,CLR,0.00,VWS V14.01,2013-03-21 14:08:00,
2013-03-21 09:10:00,20.5,4.8,30.11,North,350,3.1,4.0,50,0.00,,CLR,0.00,VWS V14.01,2013-03-21 14:10:00,
2013-03-21 09:12:00,20.7,5.0,30.11,NNW,343,0.0,2.2,50,0.00,,CLR,0.00,VWS V14.01,2013-03-21 14:12:00,
2013-03-21 09:14:00,20.8,5.1,30.11,NNW,343,0.0,0.0,50,0.00,,CLR,0.00,VWS V14.01,2013-03-21 14:14:00,
2013-03-21 09:15:00,20.8,5.1,30.11,NNW,343,0.0,0.0,50,0.00,,CLR,0.00,VWS V14.01,2013-03-21 14:15:00,
2013-03-21 09:17:00,21.0,5.3,30.11,NNW,343,0.0,0.0,50,0.00,,CLR,0.00,VWS V14.01,2013-03-21 14:17:00,
2013-03-21 09:19:00,21.2,5.5,30.11,NNW,343,2.2,2.7,50,0.00,,CLR,0.00,VWS V14.01,2013-03-21 14:19:00,
2013-03-21 09:20:00,21.2,5.5,30.11,NNE,22,2.7,2.7,50,0.00,,CLR,0.00,VWS V14.01,2013-03-21 14:20:00,
2013-03-21 09:23:00,21.2,5.5,30.11,NNE,32,4.9,4.9,50,0.00,,CLR,0.00,VWS V14.01,2013-03-21 14:23:00,
2013-03-21 09:24:00,21.2,2.7,30.11,NE,35,3.1,4.9,44,0.00,,CLR,0.00,VWS V14.01,2013-03-21 14:24:00,
2013-03-21 09:26:00,21.2,5.5,30.11,ENE,59,2.7,5.8,50,0.00,,CLR,0.00,VWS V14.01,2013-03-21 14:26:00,
2013-03-21 09:28:00,21.7,6.0,30.11,ENE,65,0.0,2.2,50,0.00,,CLR,0.00,VWS V14.01,2013-03-21 14:28:00,
2013-03-21 09:29:00,21.9,6.1,30.11,ENE,64,0.0,0.0,50,0.00,,CLR,0.00,VWS V14.01,2013-03-21 14:29:00,
2013-03-21 09:31:00,22.1,6.3,30.11,ENE,65,0.0,0.0,50,0.00,,CLR,0.00,VWS V14.01,2013-03-21 14:31:00,
2013-03-21 09:33:00,22.8,4.2,30.11,ENE,65,0.0,0.0,44,0.00,,CLR,0.00,VWS V14.01,2013-03-21 14:33:00,
2013-03-21 09:34:00,22.8,4.2,30.11,NE,52,2.7,3.1,44,0.00,,CLR,0.00,VWS V14.01,2013-03-21 14:34:00,
2013-03-21 09:35:00,23.0,4.3,30.11,NE,42,3.1,3.1,44,0.00,,CLR,0.00,VWS V14.01,2013-03-21 14:35:00,
2013-03-21 09:38:00,23.4,4.7,30.11,NNW,330,2.2,2.7,44,0.00,,CLR,0.00,VWS V14.01,2013-03-21 14:38:00,
2013-03-21 09:39:00,23.5,4.8,30.11,NNW,330,0.0,0.0,44,0.00,,CLR,0.00,VWS V14.01,2013-03-21 14:39:00,
2013-03-21 09:40:00,23.5,4.8,30.11,NNW,330,0.0,0.0,44,0.00,,CLR,0.00,VWS V14.01,2013-03-21 14:40:00,
2013-03-21 09:43:00,23.5,4.8,30.11,NW,324,0.0,3.1,44,0.00,,CLR,0.00,VWS V14.01,2013-03-21 14:43:00,
2013-03-21 09:44:00,23.5,4.8,30.11,NNW,342,4.0,5.4,44,0.00,,CLR,0.00,VWS V14.01,2013-03-21 14:44:00,
2013-03-21 09:45:00,23.5,4.8,30.11,North,0,5.8,5.8,44,0.00,,CLR,0.00,VWS V14.01,2013-03-21 14:45:00,
2013-03-21 09:48:00,23.5,4.8,30.11,NE,36,4.9,6.7,44,0.00,,CLR,0.00,VWS V14.01,2013-03-21 14:48:00,
2013-03-21 09:50:00,23.5,4.8,30.11,NNE,30,0.0,2.7,44,0.00,,CLR,0.00,VWS V14.01,2013-03-21 14:50:00,
2013-03-21 09:51:00,23.5,4.8,30.11,NNE,30,0.0,3.1,44,0.00,,CLR,0.00,VWS V14.01,2013-03-21 14:51:00,
2013-03-21 09:53:00,23.5,4.8,30.11,NNW,328,5.4,5.8,44,0.00,,CLR,0.00,VWS V14.01,2013-03-21 14:53:00,
2013-03-21 09:55:00,23.5,4.8,30.11,NNW,348,0.0,0.0,44,0.00,,CLR,0.00,VWS V14.01,2013-03-21 14:55:00,
2013-03-21 09:56:00,23.5,4.8,30.11,NNW,345,2.7,2.7,44,0.00,,CLR,0.00,VWS V14.01,2013-03-21 14:56:00,
2013-03-21 09:57:00,23.7,5.0,30.11,NNE,23,5.8,5.8,44,0.00,,CLR,0.00,VWS V14.01,2013-03-21 14:57:00,
2013-03-21 09:59:00,23.7,5.0,30.11,North,10,5.4,5.4,44,0.00,,CLR,0.00,VWS V14.01,2013-03-21 14:59:00,
2013-03-21 10:01:00,23.9,5.2,30.11,NNE,32,2.7,4.0,44,0.00,,CLR,0.00,VWS V14.01,2013-03-21 15:01:00,
2013-03-21 10:02:00,23.9,5.2,30.11,NNE,32,0.0,2.7,44,0.00,,CLR,0.00,VWS V14.01,2013-03-21 15:02:00,
2013-03-21 10:04:00,24.3,5.5,30.11,North,11,4.0,4.0,44,0.00,,CLR,0.00,VWS V14.01,2013-03-21 15:04:00,
2013-03-21 10:06:00,24.4,5.7,30.11,NE,44,3.6,3.6,44,0.00,,CLR,0.00,VWS V14.01,2013-03-21 15:06:00,
2013-03-21 10:07:00,24.4,5.7,30.11,NNE,25,2.7,5.8,44,0.00,,CLR,0.00,VWS V14.01,2013-03-21 15:07:00,
2013-03-21 10:09:00,24.6,5.8,30.11,North,5,0.0,0.0,44,0.00,,CLR,0.00,VWS V14.01,2013-03-21 15:09:00,
2013-03-21 10:11:00,24.8,6.0,30.11,NE,36,4.0,4.0,44,0.00,,CLR,0.00,VWS V14.01,2013-03-21 15:11:00,
2013-03-21 10:12:00,25.0,5.1,30.11,NE,36,4.0,4.0,42,0.00,,CLR,0.00,VWS V14.01,2013-03-21 15:12:00,
2013-03-21 10:13:00,25.0,5.1,30.11,NE,36,2.2,2.7,42,0.00,,CLR,0.00,VWS V14.01,2013-03-21 15:13:00,
2013-03-21 10:15:00,25.0,5.1,30.11,North,357,5.8,5.8,42,0.00,,CLR,0.00,VWS V14.01,2013-03-21 15:15:00,
2013-03-21 10:17:00,25.0,5.1,30.11,North,357,3.6,4.0,42,0.00,,CLR,0.00,VWS V14.01,2013-03-21 15:17:00,
2013-03-21 10:18:00,25.0,5.1,30.11,North,10,5.4,5.4,42,0.00,,CLR,0.00,VWS V14.01,2013-03-21 15:18:00,
2013-03-21 10:20:00,24.8,6.0,30.11,North,353,3.1,4.0,44,0.00,,CLR,0.00,VWS V14.01,2013-03-21 15:20:00,
2013-03-21 10:22:00,25.3,5.5,30.11,NE,50,3.1,3.1,42,0.00,,CLR,0.00,VWS V14.01,2013-03-21 15:22:00,
2013-03-21 10:23:00,25.3,5.5,30.11,NNE,32,3.6,4.0,42,0.00,,CLR,0.00,VWS V14.01,2013-03-21 15:23:00,
2013-03-21 10:25:00,26.1,6.1,30.11,ENE,65,3.6,4.0,42,0.00,,CLR,0.00,VWS V14.01,2013-03-21 15:25:00,
2013-03-21 10:28:00,26.6,6.6,30.11,NE,37,2.7,5.4,42,0.00,,CLR,0.00,VWS V14.01,2013-03-21 15:28:00,
2013-03-21 10:30:00,26.6,6.6,30.11,NNW,340,3.1,3.1,42,0.00,,CLR,0.00,VWS V14.01,2013-03-21 15:30:00,
2013-03-21 10:33:00,26.6,6.6,30.11,North,353,3.1,4.0,42,0.00,,CLR,0.00,VWS V14.01,2013-03-21 15:33:00,
2013-03-21 10:36:00,26.4,6.4,30.11,NE,35,3.1,3.6,42,0.00,,CLR,0.00,VWS V14.01,2013-03-21 15:36:00,
2013-03-21 10:38:00,26.4,6.4,30.11,NE,34,0.0,0.0,42,0.00,,CLR,0.00,VWS V14.01,2013-03-21 15:38:00,
2013-03-21 10:39:00,26.4,6.4,30.11,NE,34,0.0,0.0,42,0.00,,CLR,0.00,VWS V14.01,2013-03-21 15:39:00,
2013-03-21 10:42:00,27.3,7.3,30.11,ENE,67,0.0,3.6,42,0.00,,CLR,0.00,VWS V14.01,2013-03-21 15:42:00,
2013-03-21 10:43:00,27.9,7.8,30.11,NE,47,3.1,3.1,42,0.00,,CLR,0.00,VWS V14.01,2013-03-21 15:43:00,
2013-03-21 10:44:00,27.9,7.8,30.11,North,0,2.7,4.5,42,0.00,,CLR,0.00,VWS V14.01,2013-03-21 15:44:00,
2013-03-21 10:46:00,27.9,7.8,30.11,NNW,327,2.2,5.4,42,0.00,,CLR,0.00,VWS V14.01,2013-03-21 15:46:00,
2013-03-21 10:49:00,27.7,7.6,30.11,NE,51,3.6,6.3,42,0.00,,CLR,0.00,VWS V14.01,2013-03-21 15:49:00,
2013-03-21 10:50:00,27.9,7.8,30.11,NE,51,0.0,3.6,42,0.00,,CLR,0.00,VWS V14.01,2013-03-21 15:50:00,
2013-03-21 10:51:00,28.0,7.9,30.11,NE,39,0.0,0.0,42,0.00,,CLR,0.00,VWS V14.01,2013-03-21 15:51:00,
2013-03-21 10:54:00,28.8,7.5,30.11,NE,38,2.7,2.7,40,0.00,,CLR,0.00,VWS V14.01,2013-03-21 15:54:00,
2013-03-21 10:55:00,28.9,7.7,30.11,NNE,33,0.0,2.2,40,0.00,,CLR,0.00,VWS V14.01,2013-03-21 15:55:00,
2013-03-21 10:56:00,28.9,7.7,30.11,NNE,22,3.6,3.6,40,0.00,,CLR,0.00,VWS V14.01,2013-03-21 15:56:00,
2013-03-21 11:00:00,28.6,7.3,30.11,NNE,23,5.4,5.8,40,0.00,,CLR,0.00,VWS V14.01,2013-03-21 16:00:00,
2013-03-21 11:01:00,28.4,8.2,30.11,NE,36,6.3,6.3,42,0.00,,CLR,0.00,VWS V14.01,2013-03-21 16:01:00,
2013-03-21 11:02:00,28.4,8.2,30.11,ENE,59,5.4,5.8,42,0.00,,CLR,0.00,VWS V14.01,2013-03-21 16:02:00,
2013-03-21 11:05:00,28.4,8.2,30.11,NNE,14,2.2,6.3,42,0.00,,CLR,0.00,VWS V14.01,2013-03-21 16:05:00,
2013-03-21 11:07:00,28.6,7.3,30.11,North,3,5.8,5.8,40,0.00,,CLR,0.00,VWS V14.01,2013-03-21 16:07:00,
2013-03-21 11:08:00,28.4,8.2,30.11,NNW,328,4.0,5.4,42,0.00,,CLR,0.00,VWS V14.01,2013-03-21 16:08:00,
2013-03-21 11:10:00,28.4,8.2,30.11,NNW,328,0.0,0.0,42,0.00,,CLR,0.00,VWS V14.01,2013-03-21 16:10:00,
2013-03-21 11:12:00,28.4,8.2,30.11,NNW,340,2.7,3.1,42,0.00,,CLR,0.00,VWS V14.01,2013-03-21 16:12:00,
2013-03-21 11:14:00,28.8,7.5,30.11,WSW,247,0.0,0.0,40,0.00,,CLR,0.00,VWS V14.01,2013-03-21 16:14:00,
2013-03-21 11:15:00,29.3,8.0,30.11,NNW,327,3.1,3.1,40,0.00,,CLR,0.00,VWS V14.01,2013-03-21 16:15:00,
2013-03-21 11:17:00,29.5,8.1,30.11,North,0,6.3,6.3,40,0.00,,CLR,0.00,VWS V14.01,2013-03-21 16:17:00,
2013-03-21 11:18:00,29.5,8.1,30.11,North,0,5.4,6.3,40,0.00,,CLR,0.00,VWS V14.01,2013-03-21 16:18:00,
2013-03-21 11:20:00,29.5,8.1,30.11,North,3,5.8,6.3,40,0.00,,CLR,0.00,VWS V14.01,2013-03-21 16:20:00,
2013-03-21 11:23:00,28.9,7.7,30.11,NE,48,5.4,5.8,40,0.00,,CLR,0.00,VWS V14.01,2013-03-21 16:23:00,
2013-03-21 11:25:00,28.9,7.7,30.11,North,7,5.4,5.4,40,0.00,,CLR,0.00,VWS V14.01,2013-03-21 16:25:00,
2013-03-21 11:26:00,28.9,7.7,30.11,NNW,343,4.9,6.3,40,0.00,,CLR,0.00,VWS V14.01,2013-03-21 16:26:00,
2013-03-21 11:28:00,28.9,7.7,30.11,NNE,20,5.8,5.8,40,0.00,,CLR,0.00,VWS V14.01,2013-03-21 16:28:00,
2013-03-21 11:31:00,28.8,7.5,30.11,WNW,282,2.7,4.0,40,0.00,,CLR,0.00,VWS V14.01,2013-03-21 16:31:00,
2013-03-21 11:33:00,28.6,7.3,30.11,North,0,6.3,7.6,40,0.00,,CLR,0.00,VWS V14.01,2013-03-21 16:33:00,
2013-03-21 11:34:00,28.6,7.3,30.11,North,0,5.4,5.8,40,0.00,,CLR,0.00,VWS V14.01,2013-03-21 16:34:00,
2013-03-21 11:36:00,28.8,7.5,30.11,NE,55,4.9,5.8,40,0.00,,CLR,0.00,VWS V14.01,2013-03-21 16:36:00,
2013-03-21 11:37:00,28.8,7.5,30.11,NNE,23,4.9,5.8,40,0.00,,CLR,0.00,VWS V14.01,2013-03-21 16:37:00,
2013-03-21 11:39:00,29.1,7.8,30.11,NNW,343,4.9,5.4,40,0.00,,CLR,0.00,VWS V14.01,2013-03-21 16:39:00,
2013-03-21 11:41:00,29.3,8.0,30.11,NNE,12,8.1,8.1,40,0.00,,CLR,0.00,VWS V14.01,2013-03-21 16:41:00,
2013-03-21 11:42:00,29.3,8.0,30.11,North,4,6.3,8.1,40,0.00,,CLR,0.00,VWS V14.01,2013-03-21 16:42:00,
2013-03-21 11:44:00,29.3,8.0,30.11,North,3,6.3,6.3,40,0.00,,CLR,0.00,VWS V14.01,2013-03-21 16:44:00,
2013-03-21 11:45:00,29.5,8.1,30.11,North,357,7.6,7.6,40,0.00,,CLR,0.00,VWS V14.01,2013-03-21 16:45:00,
2013-03-21 11:47:00,29.5,8.1,30.11,North,357,0.0,6.3,40,0.00,,CLR,0.00,VWS V14.01,2013-03-21 16:47:00,
2013-03-21 11:50:00,29.7,8.3,30.11,North,9,0.0,3.6,40,0.00,,CLR,0.00,VWS V14.01,2013-03-21 16:50:00,
2013-03-21 11:52:00,30.2,8.8,30.11,North,9,0.0,0.0,40,0.00,,CLR,0.00,VWS V14.01,2013-03-21 16:52:00,
2013-03-21 11:54:00,30.6,9.1,30.11,NE,53,0.0,0.0,40,0.00,,CLR,0.00,VWS V14.01,2013-03-21 16:54:00,
2013-03-21 11:55:00,30.9,9.4,30.11,ESE,121,2.2,3.1,40,0.00,,CLR,0.00,VWS V14.01,2013-03-21 16:55:00,
2013-03-21 11:58:00,32.0,10.4,30.11,NNE,25,4.9,4.9,40,0.00,,CLR,0.00,VWS V14.01,2013-03-21 16:58:00,
2013-03-21 12:00:00,32.5,10.9,30.11,SSW,194,5.8,5.8,40,0.00,,CLR,0.00,VWS V14.01,2013-03-21 17:00:00,
2013-03-21 12:01:00,32.7,11.1,30.11,SSW,196,3.6,4.0,40,0.00,,CLR,0.00,VWS V14.01,2013-03-21 17:01:00,
2013-03-21 12:03:00,33.3,11.6,30.11,SE,124,3.1,4.0,40,0.00,,CLR,0.00,VWS V14.01,2013-03-21 17:03:00,
2013-03-21 12:06:00,33.8,12.1,30.11,SE,137,3.1,6.3,40,0.00,,CLR,0.00,VWS V14.01,2013-03-21 17:06:00,
2013-03-21 12:07:00,33.8,12.1,30.11,NE,48,2.7,3.1,40,0.00,,CLR,0.00,VWS V14.01,2013-03-21 17:07:00,
2013-03-21 12:08:00,33.8,12.1,30.08,South,175,6.3,8.3,40,0.00,,CLR,0.00,VWS V14.01,2013-03-21 17:08:00,
2013-03-21 12:11:00,33.8,12.1,30.08,SE,140,3.1,6.7,40,0.00,,CLR,0.00,VWS V14.01,2013-03-21 17:11:00,
2013-03-21 12:12:00,33.8,12.1,30.08,SE,138,3.1,6.3,40,0.00,,CLR,0.00,VWS V14.01,2013-03-21 17:12:00,
2013-03-21 12:14:00,33.8,12.1,30.08,ESE,115,4.0,5.8,40,0.00,,CLR,0.00,VWS V14.01,2013-03-21 17:14:00,
2013-03-21 12:17:00,34.0,12.2,30.08,ESE,109,4.0,5.4,40,0.00,,CLR,0.00,VWS V14.01,2013-03-21 17:17:00,
2013-03-21 12:18:00,34.0,12.2,30.08,SE,140,3.1,4.0,40,0.00,,CLR,0.00,VWS V14.01,2013-03-21 17:18:00,
2013-03-21 12:19:00,34.3,12.5,30.08,SE,133,4.0,4.9,40,0.00,,CLR,0.00,VWS V14.01,2013-03-21 17:19:00,
2013-03-21 12:22:00,34.7,12.9,30.08,SE,141,0.0,0.0,40,0.00,,CLR,0.00,VWS V14.01,2013-03-21 17:22:00,
2013-03-21 12:23:00,34.9,13.0,30.08,SE,141,0.0,0.0,40,0.00,,CLR,0.00,VWS V14.01,2013-03-21 17:23:00,
2013-03-21 12:24:00,35.1,13.2,30.08,SE,141,0.0,0.0,40,0.00,,CLR,0.00,VWS V14.01,2013-03-21 17:24:00,
2013-03-21 12:26:00,35.4,13.5,30.08,SSE,156,2.7,4.9,40,0.00,,CLR,0.00,VWS V14.01,2013-03-21 17:26:00,
2013-03-21 12:28:00,35.6,12.5,30.08,ENE,77,4.0,4.0,38,0.00,,CLR,0.00,VWS V14.01,2013-03-21 17:28:00,
2013-03-21 12:29:00,35.8,12.7,30.08,East,79,2.7,5.4,38,0.00,,CLR,0.00,VWS V14.01,2013-03-21 17:29:00,
2013-03-21 12:33:00,36.1,13.0,30.08,WSW,239,2.7,4.0,38,0.00,,CLR,0.00,VWS V14.01,2013-03-21 17:33:00,
2013-03-21 12:34:00,36.1,13.0,30.08,WSW,249,2.7,3.6,38,0.00,,CLR,0.00,VWS V14.01,2013-03-21 17:34:00,
2013-03-21 12:35:00,36.1,13.0,30.08,WSW,249,2.7,3.6,38,0.00,,CLR,0.00,VWS V14.01,2013-03-21 17:35:00,
2013-03-21 12:38:00,36.0,12.8,30.08,WSW,245,3.6,4.0,38,0.00,,CLR,0.00,VWS V14.01,2013-03-21 17:38:00,
2013-03-21 12:39:00,35.8,12.7,30.08,WSW,242,3.6,4.0,38,0.00,,CLR,0.00,VWS V14.01,2013-03-21 17:39:00,
2013-03-21 12:40:00,35.6,12.5,30.08,WSW,239,3.6,4.9,38,0.00,,CLR,0.00,VWS V14.01,2013-03-21 17:40:00,
2013-03-21 12:44:00,35.2,13.4,30.08,West,271,2.7,4.0,40,0.00,,CLR,0.00,VWS V14.01,2013-03-21 17:44:00,
2013-03-21 12:45:00,34.9,13.0,30.08,WSW,257,3.1,3.1,40,0.00,,CLR,0.00,VWS V14.01,2013-03-21 17:45:00,
2013-03-21 12:46:00,34.9,13.0,30.08,WSW,257,3.6,3.6,40,0.00,,CLR,0.00,VWS V14.01,2013-03-21 17:46:00,
2013-03-21 12:49:00,34.2,12.4,30.08,WNW,283,2.7,2.7,40,0.00,,CLR,0.00,VWS V14.01,2013-03-21 17:49:00,
2013-03-21 12:50:00,34.0,12.2,30.08,WNW,283,2.2,3.6,40,0.00,,CLR,0.00,VWS V14.01,2013-03-21 17:50:00,
2013-03-21 12:51:00,33.8,12.1,30.08,WNW,283,2.2,2.2,40,0.00,,CLR,0.00,VWS V14.01,2013-03-21 17:51:00,
2013-03-21 12:54:00,34.0,12.2,30.08,WNW,283,0.0,0.0,40,0.00,,CLR,0.00,VWS V14.01,2013-03-21 17:54:00,
2013-03-21 12:56:00,34.7,12.9,30.08,West,277,0.0,0.0,40,0.00,,CLR,0.00,VWS V14.01,2013-03-21 17:56:00,
2013-03-21 12:57:00,34.9,13.0,30.08,SE,142,3.1,3.1,40,0.00,,CLR,0.00,VWS V14.01,2013-03-21 17:57:00,
2013-03-21 12:59:00,35.2,13.4,30.08,SSE,162,2.2,2.2,40,0.00,,CLR,0.00,VWS V14.01,2013-03-21 17:59:00,
2013-03-21 13:00:00,35.2,13.4,30.08,SSE,160,2.2,2.7,40,0.00,,CLR,0.00,VWS V14.01,2013-03-21 18:00:00,
2013-03-21 13:02:00,35.4,13.5,30.08,SSE,160,0.0,0.0,40,0.00,,CLR,0.00,VWS V14.01,2013-03-21 18:02:00,
2013-03-21 13:03:00,35.4,13.5,30.08,SSW,201,5.8,5.8,40,0.00,,CLR,0.00,VWS V14.01,2013-03-21 18:03:00,
2013-03-21 13:05:00,35.6,12.5,30.08,SW,220,5.8,8.7,38,0.00,,CLR,0.00,VWS V14.01,2013-03-21 18:05:00,
2013-03-21 13:07:00,35.4,13.5,30.08,SSW,198,7.6,8.1,40,0.00,,CLR,0.00,VWS V14.01,2013-03-21 18:07:00,
2013-03-21 13:08:00,35.4,13.5,30.08,SSW,195,5.4,6.3,40,0.00,,CLR,0.00,VWS V14.01,2013-03-21 18:08:00,
2013-03-21 13:10:00,35.6,12.5,30.08,SSW,192,0.0,0.0,38,0.00,,CLR,0.00,VWS V14.01,2013-03-21 18:10:00,
2013-03-21 13:12:00,35.8,12.7,30.08,SSW,192,0.0,0.0,38,0.00,,CLR,0.00,VWS V14.01,2013-03-21 18:12:00,
2013-03-21 13:13:00,35.8,12.7,30.08,SSW,194,0.0,0.0,38,0.00,,CLR,0.00,VWS V14.01,2013-03-21 18:13:00,
2013-03-21 13:15:00,36.1,13.0,30.08,SSW,196,0.0,0.0,38,0.00,,CLR,0.00,VWS V14.01,2013-03-21 18:15:00,
2013-03-21 13:17:00,36.1,13.0,30.08,South,186,0.0,2.7,38,0.00,,CLR,0.00,VWS V14.01,2013-03-21 18:17:00,
2013-03-21 13:18:00,36.1,13.0,30.08,NW,311,3.1,3.1,38,0.00,,CLR,0.00,VWS V14.01,2013-03-21 18:18:00,
2013-03-21 13:19:00,36.3,13.2,30.08,WSW,239,5.4,5.4,38,0.00,,CLR,0.00,VWS V14.01,2013-03-21 18:19:00,
2013-03-21 13:20:00,36.5,13.3,30.08,WSW,240,2.7,5.4,38,0.00,,CLR,0.00,VWS V14.01,2013-03-21 18:20:00,
2013-03-21 13:22:00,36.9,13.6,30.08,SW,219,4.0,5.8,38,0.00,,CLR,0.00,VWS V14.01,2013-03-21 18:22:00,
2013-03-21 13:23:00,37.4,14.1,30.05,South,184,3.1,5.4,38,0.00,,CLR,0.00,VWS V14.01,2013-03-21 18:23:00,
2013-03-21 13:25:00,37.9,14.6,30.05,SSW,205,5.8,5.8,38,0.00,,CLR,0.00,VWS V14.01,2013-03-21 18:25:00,
2013-03-21 13:27:00,38.8,15.4,30.05,SSW,202,4.0,4.0,38,0.00,,CLR,0.00,VWS V14.01,2013-03-21 18:27:00,
2013-03-21 13:28:00,39.9,15.1,30.05,WSW,237,6.3,6.3,36,0.00,,CLR,0.00,VWS V14.01,2013-03-21 18:28:00,
2013-03-21 13:29:00,40.3,15.5,30.05,WSW,243,5.4,5.8,36,0.00,,CLR,0.00,VWS V14.01,2013-03-21 18:29:00,
2013-03-21 13:30:00,40.6,15.8,30.05,WSW,237,5.4,5.4,36,0.00,,CLR,0.00,VWS V14.01,2013-03-21 18:30:00,
2013-03-21 13:32:00,41.0,16.1,30.05,West,279,2.7,3.1,36,0.00,,CLR,0.00,VWS V14.01,2013-03-21 18:32:00,
2013-03-21 13:33:00,41.2,16.3,30.05,West,266,3.1,4.0,36,0.00,,CLR,0.00,VWS V14.01,2013-03-21 18:33:00,
2013-03-21 13:35:00,40.6,15.8,30.05,NW,325,4.5,5.8,36,0.00,,CLR,0.00,VWS V14.01,2013-03-21 18:35:00,
2013-03-21 13:37:00,39.6,14.8,30.05,NW,323,6.7,6.7,36,0.00,,CLR,0.00,VWS V14.01,2013-03-21 18:37:00,
2013-03-21 13:39:00,38.8,15.4,30.05,SE,126,4.0,8.1,38,0.00,,CLR,0.00,VWS V14.01,2013-03-21 18:39:00,
2013-03-21 13:41:00,39.2,14.5,30.05,SSE,162,2.2,3.6,36,0.00,,CLR,0.00,VWS V14.01,2013-03-21 18:41:00,
2013-03-21 13:42:00,39.2,14.5,30.05,SE,140,4.0,4.0,36,0.00,,CLR,0.00,VWS V14.01,2013-03-21 18:42:00,
2013-03-21 13:43:00,39.2,14.5,30.05,SSW,195,4.0,4.0,36,0.00,,CLR,0.00,VWS V14.01,2013-03-21 18:43:00,
2013-03-21 13:44:00,39.7,15.0,30.05,SW,219,4.0,4.0,36,0.00,,CLR,0.00,VWS V14.01,2013-03-21 18:44:00,
2013-03-21 13:46:00,39.7,15.0,30.05,SSW,212,4.0,6.3,36,0.00,,CLR,0.00,VWS V14.01,2013-03-21 18:46:00,
2013-03-21 13:48:00,40.1,15.3,30.05,SSW,202,2.7,4.9,36,0.00,,CLR,0.00,VWS V14.01,2013-03-21 18:48:00,
2013-03-21 13:49:00,40.3,15.5,30.05,SSW,198,2.7,2.7,36,0.00,,CLR,0.00,VWS V14.01,2013-03-21 18:49:00,
2013-03-21 13:50:00,40.5,15.6,30.05,South,186,0.0,2.7,36,0.00,,CLR,0.00,VWS V14.01,2013-03-21 18:50:00,
2013-03-21 13:52:00,40.8,15.9,30.05,South,173,5.4,5.4,36,0.00,,CLR,0.00,VWS V14.01,2013-03-21 18:52:00,
2013-03-21 13:53:00,41.0,16.1,30.05,SSE,168,3.1,4.9,36,0.00,,CLR,0.00,VWS V14.01,2013-03-21 18:53:00,
2013-03-21 13:55:00,41.4,16.4,30.05,South,177,4.9,4.9,36,0.00,,CLR,0.00,VWS V14.01,2013-03-21 18:55:00,
2013-03-21 13:58:00,41.9,16.9,30.05,WNW,302,3.1,3.1,36,0.00,,CLR,0.00,VWS V14.01,2013-03-21 18:58:00,
2013-03-21 14:00:00,41.5,16.6,30.05,North,10,2.2,3.1,36,0.00,,CLR,0.00,VWS V14.01,2013-03-21 19:00:00,
2013-03-21 14:02:00,40.6,15.8,30.05,NNW,338,5.4,6.3,36,0.00,,CLR,0.00,VWS V14.01,2013-03-21 19:02:00,
2013-03-21 14:04:00,39.9,15.1,30.05,NNE,22,5.8,5.8,36,0.00,,CLR,0.00,VWS V14.01,2013-03-21 19:04:00,
2013-03-21 14:07:00,38.7,15.3,30.05,North,0,4.0,10.5,38,0.00,,CLR,0.00,VWS V14.01,2013-03-21 19:07:00,
2013-03-21 14:09:00,38.3,14.9,30.02,NNW,328,8.3,8.3,38,0.00,,CLR,0.00,VWS V14.01,2013-03-21 19:09:00,
2013-03-21 14:12:00,37.6,14.3,30.02,NNE,21,8.1,8.1,38,0.00,,CLR,0.00,VWS V14.01,2013-03-21 19:12:00,
2013-03-21 14:14:00,37.2,14.0,30.02,NNE,16,4.9,4.9,38,0.00,,CLR,0.00,VWS V14.01,2013-03-21 19:14:00,
2013-03-21 14:15:00,37.0,13.8,30.02,NE,41,5.8,5.8,38,0.00,,CLR,0.00,VWS V14.01,2013-03-21 19:15:00,
2013-03-21 14:17:00,37.2,14.0,30.02,NNE,15,0.0,8.1,38,0.00,,CLR,0.00,VWS V14.01,2013-03-21 19:17:00,
2013-03-21 14:20:00,38.1,14.8,30.02,NE,52,3.1,4.0,38,0.00,,CLR,0.00,VWS V14.01,2013-03-21 19:20:00,
2013-03-21 14:22:00,39.2,14.5,30.02,NE,49,2.7,3.1,36,0.00,,CLR,0.00,VWS V14.01,2013-03-21 19:22:00,
2013-03-21 14:26:00,40.1,15.3,30.02,ENE,57,0.0,3.6,36,0.00,,CLR,0.00,VWS V14.01,2013-03-21 19:26:00,
2013-03-21 14:27:00,40.5,15.6,30.02,ENE,78,0.0,0.0,36,0.00,,CLR,0.00,VWS V14.01,2013-03-21 19:27:00,
2013-03-21 14:28:00,40.5,15.6,30.02,ENE,78,0.0,0.0,36,0.00,,CLR,0.00,VWS V14.01,2013-03-21 19:28:00,
2013-03-21 14:31:00,39.9,15.1,30.02,NW,314,2.7,5.8,36,0.00,,CLR,0.00,VWS V14.01,2013-03-21 19:31:00,
2013-03-21 14:32:00,39.9,15.1,30.02,NW,314,0.0,2.7,36,0.00,,CLR,0.00,VWS V14.01,2013-03-21 19:32:00,
2013-03-21 14:33:00,39.7,15.0,30.02,NW,314,3.1,3.1,36,0.00,,CLR,0.00,VWS V14.01,2013-03-21 19:33:00,
2013-03-21 14:34:00,39.6,14.8,30.02,NW,323,3.1,3.1,36,0.00,,CLR,0.00,VWS V14.01,2013-03-21 19:34:00,
2013-03-21 14:37:00,39.6,14.8,30.02,ENE,62,2.7,6.3,36,0.00,,CLR,0.00,VWS V14.01,2013-03-21 19:37:00,
2013-03-21 14:38:00,39.7,15.0,30.02,NE,38,3.6,3.6,36,0.00,,CLR,0.00,VWS V14.01,2013-03-21 19:38:00,
2013-03-21 14:39:00,39.7,15.0,30.02,NE,45,4.0,4.0,36,0.00,,CLR,0.00,VWS V14.01,2013-03-21 19:39:00,
2013-03-21 14:40:00,39.7,15.0,30.02,ENE,72,5.8,5.8,36,0.00,,CLR,0.00,VWS V14.01,2013-03-21 19:40:00,
2013-03-21 14:42:00,39.9,15.1,30.02,ENE,67,0.0,2.7,36,0.00,,CLR,0.00,VWS V14.01,2013-03-21 19:42:00,
2013-03-21 14:43:00,39.7,15.0,30.02,ENE,63,2.7,2.7,36,0.00,,CLR,0.00,VWS V14.01,2013-03-21 19:43:00,
2013-03-21 14:45:00,39.7,15.0,30.02,ENE,62,3.1,3.6,36,0.00,,CLR,0.00,VWS V14.01,2013-03-21 19:45:00,
2013-03-21 14:47:00,39.7,15.0,30.02,NE,49,0.0,2.7,36,0.00,,CLR,0.00,VWS V14.01,2013-03-21 19:47:00,
2013-03-21 14:48:00,39.7,15.0,30.02,NE,49,2.7,2.7,36,0.00,,CLR,0.00,VWS V14.01,2013-03-21 19:48:00,
2013-03-21 14:51:00,39.7,15.0,30.02,NNE,28,0.0,3.6,36,0.00,,CLR,0.00,VWS V14.01,2013-03-21 19:51:00,
2013-03-21 14:53:00,39.7,15.0,30.02,ESE,122,0.0,0.0,36,0.00,,CLR,0.00,VWS V14.01,2013-03-21 19:53:00,
2013-03-21 14:55:00,39.9,15.1,30.02,ENE,73,3.1,4.9,36,0.00,,CLR,0.00,VWS V14.01,2013-03-21 19:55:00,
2013-03-21 14:56:00,40.1,15.3,30.02,SSE,152,4.9,4.9,36,0.00,,CLR,0.00,VWS V14.01,2013-03-21 19:56:00,
2013-03-21 14:58:00,40.5,15.6,30.02,SSE,154,0.0,3.1,36,0.00,,CLR,0.00,VWS V14.01,2013-03-21 19:58:00,
2013-03-21 15:00:00,40.6,15.8,30.02,SE,139,2.7,3.1,36,0.00,,CLR,0.00,VWS V14.01,2013-03-21 20:00:00,
2013-03-21 15:01:00,40.8,15.9,30.02,SE,140,2.7,2.7,36,0.00,,CLR,0.00,VWS V14.01,2013-03-21 20:01:00,
2013-03-21 15:02:00,40.8,15.9,30.02,SE,139,2.7,2.7,36,0.00,,CLR,0.00,VWS V14.01,2013-03-21 20:02:00,
2013-03-21 15:03:00,41.0,16.1,30.02,SE,142,0.0,4.0,36,0.00,,CLR,0.00,VWS V14.01,2013-03-21 20:03:00,
2013-03-21 15:05:00,41.2,16.3,30.02,SSE,159,0.0,3.1,36,0.00,,CLR,0.00,VWS V14.01,2013-03-21 20:05:00,
2013-03-21 15:07:00,41.2,16.3,30.02,SSE,149,2.7,3.6,36,0.00,,CLR,0.00,VWS V14.01,2013-03-21 20:07:00,
2013-03-21 15:09:00,41.2,16.3,29.99,SE,146,2.7,2.7,36,0.00,,CLR,0.00,VWS V14.01,2013-03-21 20:09:00,
2013-03-21 15:10:00,41.4,16.4,29.99,SE,146,0.0,3.6,36,0.00,,CLR,0.00,VWS V14.01,2013-03-21 20:10:00,
2013-03-21 15:12:00,41.5,16.6,29.99,SE,146,0.0,0.0,36,0.00,,CLR,0.00,VWS V14.01,2013-03-21 20:12:00,
2013-03-21 15:13:00,41.7,16.8,29.99,ESE,104,5.8,5.8,36,0.00,,CLR,0.00,VWS V14.01,2013-03-21 20:13:00,
2013-03-21 15:15:00,41.9,16.9,29.99,ESE,111,3.1,3.1,36,0.00,,CLR,0.00,VWS V14.01,2013-03-21 20:15:00,
2013-03-21 15:17:00,42.1,17.1,29.99,SSE,149,3.1,5.4,36,0.00,,CLR,0.00,VWS V14.01,2013-03-21 20:17:00,
2013-03-21 15:18:00,41.9,16.9,29.99,SE,142,4.9,4.9,36,0.00,,CLR,0.00,VWS V14.01,2013-03-21 20:18:00,
2013-03-21 15:20:00,42.1,17.1,29.99,ESE,108,0.0,0.0,36,0.00,,CLR,0.00,VWS V14.01,2013-03-21 20:20:00,
2013-03-21 15:21:00,42.1,17.1,29.99,ESE,108,0.0,0.0,36,0.00,,CLR,0.00,VWS V14.01,2013-03-21 20:21:00,
2013-03-21 15:22:00,42.3,17.2,29.99,ESE,107,0.0,0.0,36,0.00,,CLR,0.00,VWS V14.01,2013-03-21 20:22:00,
2013-03-21 15:23:00,42.4,17.4,29.99,East,91,0.0,0.0,36,0.00,,CLR,0.00,VWS V14.01,2013-03-21 20:23:00,
2013-03-21 15:26:00,42.4,17.4,29.99,ENE,72,2.7,2.7,36,0.00,,CLR,0.00,VWS V14.01,2013-03-21 20:26:00,
2013-03-21 15:28:00,42.6,17.5,29.99,ENE,74,0.0,0.0,36,0.00,,CLR,0.00,VWS V14.01,2013-03-21 20:28:00,
2013-03-21 15:32:00,43.3,18.2,29.99,SSW,196,0.0,0.0,36,0.00,,CLR,0.00,VWS V14.01,2013-03-21 20:32:00,
2013-03-21 15:33:00,43.5,18.4,29.99,West,269,3.1,3.1,36,0.00,,CLR,0.00,VWS V14.01,2013-03-21 20:33:00,
2013-03-21 15:34:00,43.7,18.5,29.99,West,259,0.0,3.1,36,0.00,,CLR,0.00,VWS V14.01,2013-03-21 20:34:00,
2013-03-21 15:37:00,44.2,19.0,29.99,NE,39,0.0,3.6,36,0.00,,CLR,0.00,VWS V14.01,2013-03-21 20:37:00,
2013-03-21 15:38:00,44.2,19.0,29.99,NE,48,0.0,4.0,36,0.00,,CLR,0.00,VWS V14.01,2013-03-21 20:38:00,
2013-03-21 15:39:00,44.6,18.0,29.96,NE,34,2.7,2.7,34,0.00,,CLR,0.00,VWS V14.01,2013-03-21 20:39:00,
2013-03-21 15:43:00,45.1,18.5,29.96,ENE,69,2.7,4.9,34,0.00,,CLR,0.00,VWS V14.01,2013-03-21 20:43:00,
2013-03-21 15:44:00,45.1,18.5,29.96,ENE,77,7.6,7.6,34,0.00,,CLR,0.00,VWS V14.01,2013-03-21 20:44:00,
2013-03-21 15:45:00,45.1,18.5,29.96,East,100,3.6,7.6,34,0.00,,CLR,0.00,VWS V14.01,2013-03-21 20:45:00,
2013-03-21 15:48:00,45.1,18.5,29.96,ESE,105,0.0,3.1,34,0.00,,CLR,0.00,VWS V14.01,2013-03-21 20:48:00,
2013-03-21 15:49:00,45.1,18.5,29.96,ESE,105,0.0,0.0,34,0.00,,CLR,0.00,VWS V14.01,2013-03-21 20:49:00,
2013-03-21 15:50:00,45.1,18.5,29.96,ESE,105,0.0,2.2,34,0.00,,CLR,0.00,VWS V14.01,2013-03-21 20:50:00,
2013-03-21 15:53:00,45.3,18.6,29.96,ESE,111,0.0,3.1,34,0.00,,CLR,0.00,VWS V14.01,2013-03-21 20:53:00,
2013-03-21 15:54:00,45.5,18.8,29.99,SSW,212,3.1,3.1,34,0.00,,CLR,0.00,VWS V14.01,2013-03-21 20:54:00,
2013-03-21 15:55:00,45.3,18.6,29.99,South,187,4.0,4.0,34,0.00,,CLR,0.00,VWS V14.01,2013-03-21 20:55:00,
2013-03-21 15:59:00,45.1,18.5,29.99,NNW,343,4.9,4.9,34,0.00,,CLR,0.00,VWS V14.01,2013-03-21 20:59:00,
2013-03-21 16:00:00,44.8,18.1,29.99,NNW,337,0.0,3.6,34,0.00,,CLR,0.00,VWS V14.01,2013-03-21 21:00:00,
2013-03-21 16:01:00,44.6,18.0,29.99,NNW,337,0.0,3.6,34,0.00,,CLR,0.00,VWS V14.01,2013-03-21 21:01:00,
2013-03-21 16:04:00,44.2,19.0,29.99,NNW,327,3.6,3.6,36,0.00,,CLR,0.00,VWS V14.01,2013-03-21 21:04:00,
2013-03-21 16:06:00,44.2,19.0,29.99,NNW,327,0.0,2.2,36,0.00,,CLR,0.00,VWS V14.01,2013-03-21 21:06:00,
2013-03-21 16:07:00,44.2,19.0,29.99,NNW,327,0.0,0.0,36,0.00,,CLR,0.00,VWS V14.01,2013-03-21 21:07:00,
2013-03-21 16:09:00,44.6,18.0,29.96,ESE,107,4.0,4.0,34,0.00,,CLR,0.00,VWS V14.01,2013-03-21 21:09:00,
2013-03-21 16:10:00,44.6,18.0,29.96,ESE,115,3.6,4.0,34,0.00,,CLR,0.00,VWS V14.01,2013-03-21 21:10:00,
2013-03-21 16:12:00,45.0,18.3,29.96,SSE,168,3.6,5.4,34,0.00,,CLR,0.00,VWS V14.01,2013-03-21 21:12:00,
2013-03-21 16:15:00,44.8,18.1,29.96,ESE,114,3.1,4.0,34,0.00,,CLR,0.00,VWS V14.01,2013-03-21 21:15:00,
2013-03-21 16:17:00,44.6,18.0,29.96,SE,139,3.1,4.0,34,0.00,,CLR,0.00,VWS V14.01,2013-03-21 21:17:00,
2013-03-21 16:18:00,44.6,18.0,29.96,SE,141,4.9,4.9,34,0.00,,CLR,0.00,VWS V14.01,2013-03-21 21:18:00,
2013-03-21 16:20:00,44.2,19.0,29.96,North,10,0.0,0.0,36,0.00,,CLR,0.00,VWS V14.01,2013-03-21 21:20:00,
2013-03-21 16:22:00,43.9,18.7,29.96,NNE,16,4.0,4.0,36,0.00,,CLR,0.00,VWS V14.01,2013-03-21 21:22:00,
2013-03-21 16:23:00,43.7,18.5,29.96,North,0,4.0,4.0,36,0.00,,CLR,0.00,VWS V14.01,2013-03-21 21:23:00,
2013-03-21 16:25:00,43.0,17.9,29.96,NNE,22,2.2,2.7,36,0.00,,CLR,0.00,VWS V14.01,2013-03-21 21:25:00,
2013-03-21 16:27:00,42.6,17.5,29.96,NNE,16,4.0,4.9,36,0.00,,CLR,0.00,VWS V14.01,2013-03-21 21:27:00,
2013-03-21 16:28:00,42.4,17.4,29.96,NE,40,2.7,3.6,36,0.00,,CLR,0.00,VWS V14.01,2013-03-21 21:28:00,
2013-03-21 16:29:00,42.3,17.2,29.96,NE,40,4.0,4.0,36,0.00,,CLR,0.00,VWS V14.01,2013-03-21 21:29:00,
2013-03-21 16:30:00,42.4,17.4,29.96,ENE,67,5.4,5.4,36,0.00,,CLR,0.00,VWS V14.01,2013-03-21 21:30:00,
2013-03-21 16:32:00,42.8,17.7,29.96,East,84,6.3,6.3,36,0.00,,CLR,0.00,VWS V14.01,2013-03-21 21:32:00,
2013-03-21 16:34:00,43.2,18.0,29.96,North,11,7.2,7.2,36,0.00,,CLR,0.00,VWS V14.01,2013-03-21 21:34:00,
2013-03-21 16:35:00,43.2,18.0,29.96,NNE,25,3.1,3.6,36,0.00,,CLR,0.00,VWS V14.01,2013-03-21 21:35:00,
2013-03-21 16:38:00,42.8,17.7,29.96,NNE,27,0.0,0.0,36,0.00,,CLR,0.00,VWS V14.01,2013-03-21 21:38:00,
2013-03-21 16:40:00,42.8,17.7,29.96,NNE,29,3.6,3.6,36,0.00,,CLR,0.00,VWS V14.01,2013-03-21 21:40:00,
2013-03-21 16:41:00,43.0,17.9,29.96,ENE,76,5.8,5.8,36,0.00,,CLR,0.00,VWS V14.01,2013-03-21 21:41:00,
2013-03-21 16:42:00,43.3,18.2,29.96,ENE,74,3.6,5.8,36,0.00,,CLR,0.00,VWS V14.01,2013-03-21 21:42:00,
2013-03-21 16:44:00,43.7,18.5,29.96,NE,45,4.0,4.9,36,0.00,,CLR,0.00,VWS V14.01,2013-03-21 21:44:00,
2013-03-21 16:46:00,44.2,19.0,29.96,NNE,21,0.0,4.9,36,0.00,,CLR,0.00,VWS V14.01,2013-03-21 21:46:00,
2013-03-21 16:47:00,44.6,18.0,29.96,NE,45,4.0,5.8,34,0.00,,CLR,0.00,VWS V14.01,2013-03-21 21:47:00,
2013-03-21 16:48:00,44.6,18.0,29.96,NE,38,5.4,5.8,34,0.00,,CLR,0.00,VWS V14.01,2013-03-21 21:48:00,
2013-03-21 16:49:00,44.4,19.1,29.96,North,9,7.6,8.1,36,0.00,,CLR,0.00,VWS V14.01,2013-03-21 21:49:00,
2013-03-21 16:52:00,43.0,17.9,29.96,North,353,2.7,5.8,36,0.00,,CLR,0.00,VWS V14.01,2013-03-21 21:52:00,
2013-03-21 16:53:00,43.0,17.9,29.96,North,2,2.7,2.7,36,0.00,,CLR,0.00,VWS V14.01,2013-03-21 21:53:00,
2013-03-21 16:54:00,42.1,17.1,29.96,NNW,344,6.3,8.1,36,0.00,,CLR,0.00,VWS V14.01,2013-03-21 21:54:00,
2013-03-21 16:57:00,41.2,16.3,29.96,NNE,15,0.0,4.0,36,0.00,,CLR,0.00,VWS V14.01,2013-03-21 21:57:00,
2013-03-21 16:58:00,41.2,16.3,29.96,NNE,18,0.0,4.0,36,0.00,,CLR,0.00,VWS V14.01,2013-03-21 21:58:00,
2013-03-21 17:00:00,41.5,16.6,29.96,NE,34,2.2,4.0,36,0.00,,CLR,0.00,VWS V14.01,2013-03-21 22:00:00,
2013-03-21 17:03:00,41.9,16.9,29.96,NE,36,0.0,4.0,36,0.00,,CLR,0.00,VWS V14.01,2013-03-21 22:03:00,
2013-03-21 17:06:00,42.6,17.5,29.96,SE,135,4.0,4.0,36,0.00,,CLR,0.00,VWS V14.01,2013-03-21 22:06:00,
2013-03-21 17:08:00,43.5,18.4,29.96,East,79,3.1,3.1,36,0.00,,CLR,0.00,VWS V14.01,2013-03-21 22:08:00,
2013-03-21 17:09:00,43.5,18.4,29.96,East,79,3.1,3.1,36,0.00,,CLR,0.00,VWS V14.01,2013-03-21 22:09:00,
2013-03-21 17:11:00,43.7,18.5,29.96,ENE,57,0.0,4.9,36,0.00,,CLR,0.00,VWS V14.01,2013-03-21 22:11:00,
2013-03-21 17:13:00,43.9,18.7,29.96,NE,53,2.2,2.2,36,0.00,,CLR,0.00,VWS V14.01,2013-03-21 22:13:00,
2013-03-21 17:14:00,43.7,18.5,29.96,NE,45,3.1,3.1,36,0.00,,CLR,0.00,VWS V14.01,2013-03-21 22:14:00,
2013-03-21 17:16:00,43.7,18.5,29.96,ENE,75,5.8,8.3,36,0.00,,CLR,0.00,VWS V14.01,2013-03-21 22:16:00,
2013-03-21 17:18:00,43.7,18.5,29.96,East,81,0.0,2.7,36,0.00,,CLR,0.00,VWS V14.01,2013-03-21 22:18:00,
2013-03-21 17:19:00,43.7,18.5,29.96,East,81,0.0,0.0,36,0.00,,CLR,0.00,VWS V14.01,2013-03-21 22:19:00,
2013-03-21 17:21:00,43.5,18.4,29.96,NE,41,3.6,5.4,36,0.00,,CLR,0.00,VWS V14.01,2013-03-21 22:21:00,
2013-03-21 17:22:00,43.0,17.9,29.96,NNE,12,5.4,5.4,36,0.00,,CLR,0.00,VWS V14.01,2013-03-21 22:22:00,
2013-03-21 17:24:00,42.4,17.4,29.96,NE,48,3.1,5.4,36,0.00,,CLR,0.00,VWS V14.01,2013-03-21 22:24:00,
2013-03-21 17:25:00,42.3,17.2,29.96,NE,39,2.7,2.7,36,0.00,,CLR,0.00,VWS V14.01,2013-03-21 22:25:00,
2013-03-21 17:27:00,41.9,16.9,29.96,NNE,22,6.3,7.2,36,0.00,,CLR,0.00,VWS V14.01,2013-03-21 22:27:00,
2013-03-21 17:28:00,41.9,16.9,29.96,NE,56,4.9,6.3,36,0.00,,CLR,0.00,VWS V14.01,2013-03-21 22:28:00,
2013-03-21 17:30:00,41.9,16.9,29.96,NNE,23,2.7,4.0,36,0.00,,CLR,0.00,VWS V14.01,2013-03-21 22:30:00,
2013-03-21 17:31:00,42.1,17.1,29.96,NNE,21,6.3,6.3,36,0.00,,CLR,0.00,VWS V14.01,2013-03-21 22:31:00,
2013-03-21 17:32:00,42.1,17.1,29.96,NE,37,5.4,6.3,36,0.00,,CLR,0.00,VWS V14.01,2013-03-21 22:32:00,
2013-03-21 17:33:00,41.5,16.6,29.96,NE,37,4.0,5.4,36,0.00,,CLR,0.00,VWS V14.01,2013-03-21 22:33:00,
2013-03-21 17:35:00,41.2,16.3,29.96,NNE,24,2.7,3.6,36,0.00,,CLR,0.00,VWS V14.01,2013-03-21 22:35:00,
2013-03-21 17:37:00,41.2,16.3,29.96,NE,53,4.5,4.5,36,0.00,,CLR,0.00,VWS V14.01,2013-03-21 22:37:00,
2013-03-21 17:39:00,41.5,16.6,29.96,NE,53,4.0,4.0,36,0.00,,CLR,0.00,VWS V14.01,2013-03-21 22:39:00,
2013-03-21 17:41:00,41.9,16.9,29.96,NE,40,2.7,2.7,36,0.00,,CLR,0.00,VWS V14.01,2013-03-21 22:41:00,
2013-03-21 17:43:00,42.1,17.1,29.96,NNE,33,2.2,2.7,36,0.00,,CLR,0.00,VWS V14.01,2013-03-21 22:43:00,
2013-03-21 17:44:00,42.4,17.4,29.96,ENE,73,5.4,5.4,36,0.00,,CLR,0.00,VWS V14.01,2013-03-21 22:44:00,
2013-03-21 17:48:00,43.0,17.9,29.96,East,82,3.1,3.6,36,0.00,,CLR,0.00,VWS V14.01,2013-03-21 22:48:00,
2013-03-21 17:49:00,43.2,18.0,29.96,SSE,154,4.0,4.0,36,0.00,,CLR,0.00,VWS V14.01,2013-03-21 22:49:00,
2013-03-21 17:53:00,43.2,18.0,29.96,South,176,2.2,3.1,36,0.00,,CLR,0.00,VWS V14.01,2013-03-21 22:53:00,
2013-03-21 17:54:00,43.0,17.9,29.96,SE,130,6.3,6.3,36,0.00,,CLR,0.00,VWS V14.01,2013-03-21 22:54:00,
2013-03-21 17:58:00,42.6,17.5,29.96,SE,126,3.1,3.1,36,0.00,,CLR,0.00,VWS V14.01,2013-03-21 22:58:00,
2013-03-21 17:59:00,42.4,17.4,29.96,SE,126,0.0,0.0,36,0.00,,CLR,0.00,VWS V14.01,2013-03-21 22:59:00,
2013-03-21 18:00:00,42.4,17.4,29.96,SE,126,0.0,0.0,36,0.00,,CLR,0.00,VWS V14.01,2013-03-21 23:00:00,
2013-03-21 18:04:00,42.1,17.1,29.96,SSE,156,0.0,3.6,36,0.00,,CLR,0.00,VWS V14.01,2013-03-21 23:04:00,
2013-03-21 18:05:00,41.9,16.9,29.96,SSE,152,3.1,3.1,36,0.00,,CLR,0.00,VWS V14.01,2013-03-21 23:05:00,
2013-03-21 18:09:00,41.5,16.6,29.99,SSE,150,0.0,0.0,36,0.00,,CLR,0.00,VWS V14.01,2013-03-21 23:09:00,
2013-03-21 18:10:00,41.5,16.6,29.99,SSE,150,0.0,0.0,36,0.00,,CLR,0.00,VWS V14.01,2013-03-21 23:10:00,
2013-03-21 18:12:00,41.5,16.6,29.99,SSE,150,0.0,0.0,36,0.00,,CLR,0.00,VWS V14.01,2013-03-21 23:12:00,
2013-03-21 18:14:00,41.2,16.3,29.99,SSE,150,0.0,0.0,36,0.00,,CLR,0.00,VWS V14.01,2013-03-21 23:14:00,
2013-03-21 18:16:00,40.8,15.9,29.99,SE,133,0.0,0.0,36,0.00,,CLR,0.00,VWS V14.01,2013-03-21 23:16:00,
2013-03-21 18:17:00,40.6,15.8,29.99,ESE,118,0.0,2.2,36,0.00,,CLR,0.00,VWS V14.01,2013-03-21 23:17:00,
2013-03-21 18:19:00,40.3,15.5,29.99,ESE,119,0.0,0.0,36,0.00,,CLR,0.00,VWS V14.01,2013-03-21 23:19:00,
2013-03-21 18:21:00,39.7,15.0,29.99,SSE,150,0.0,4.0,36,0.00,,CLR,0.00,VWS V14.01,2013-03-21 23:21:00,
2013-03-21 18:23:00,39.4,14.7,29.99,SE,145,5.8,5.8,36,0.00,,CLR,0.00,VWS V14.01,2013-03-21 23:23:00,
2013-03-21 18:25:00,38.8,15.4,29.96,SSE,164,3.6,5.4,38,0.00,,CLR,0.00,VWS V14.01,2013-03-21 23:25:00,
2013-03-21 18:26:00,38.5,15.1,29.96,SSE,167,2.2,2.7,38,0.00,,CLR,0.00,VWS V14.01,2013-03-21 23:26:00,
2013-03-21 18:27:00,38.3,14.9,29.96,SSE,160,2.7,3.6,38,0.00,,CLR,0.00,VWS V14.01,2013-03-21 23:27:00,
2013-03-21 18:28:00,38.1,14.8,29.96,SSE,158,3.1,3.1,38,0.00,,CLR,0.00,VWS V14.01,2013-03-21 23:28:00,
2013-03-21 18:29:00,37.8,14.4,29.96,SSE,163,2.7,3.1,38,0.00,,CLR,0.00,VWS V14.01,2013-03-21 23:29:00,
2013-03-21 18:32:00,37.2,14.0,29.96,SSE,159,3.1,5.4,38,0.00,,CLR,0.00,VWS V14.01,2013-03-21 23:32:00,
2013-03-21 18:33:00,36.9,13.6,29.96,SSE,151,2.2,2.7,38,0.00,,CLR,0.00,VWS V14.01,2013-03-21 23:33:00,
2013-03-21 18:34:00,36.9,13.6,29.96,SSE,150,3.1,3.1,38,0.00,,CLR,0.00,VWS V14.01,2013-03-21 23:34:00,
2013-03-21 18:37:00,36.7,13.5,29.96,SSE,150,2.2,2.2,38,0.00,,CLR,0.00,VWS V14.01,2013-03-21 23:37:00,
2013-03-21 18:40:00,36.7,13.5,29.96,SSE,150,0.0,0.0,38,0.00,,CLR,0.00,VWS V14.01,2013-03-21 23:40:00,
2013-03-21 18:42:00,36.3,13.2,29.96,SSE,150,0.0,0.0,38,0.00,,CLR,0.00,VWS V14.01,2013-03-21 23:42:00,
2013-03-21 18:45:00,36.0,12.8,29.96,SSE,150,0.0,0.0,38,0.00,,CLR,0.00,VWS V14.01,2013-03-21 23:45:00,
2013-03-21 18:47:00,35.6,12.5,29.96,SSE,147,3.6,3.6,38,0.00,,CLR,0.00,VWS V14.01,2013-03-21 23:47:00,
2013-03-21 18:49:00,35.4,13.5,29.96,SSE,149,2.2,4.0,40,0.00,,CLR,0.00,VWS V14.01,2013-03-21 23:49:00,
2013-03-21 18:50:00,35.1,13.2,29.96,SSE,149,2.7,3.1,40,0.00,,CLR,0.00,VWS V14.01,2013-03-21 23:50:00,
2013-03-21 18:52:00,34.9,13.0,29.96,SSE,149,0.0,0.0,40,0.00,,CLR,0.00,VWS V14.01,2013-03-21 23:52:00,
2013-03-21 18:54:00,34.7,12.9,29.96,SSE,149,0.0,0.0,40,0.00,,CLR,0.00,VWS V14.01,2013-03-21 23:54:00,
2013-03-21 18:55:00,34.5,12.7,29.96,SSE,149,0.0,0.0,40,0.00,,CLR,0.00,VWS V14.01,2013-03-21 23:55:00,
2013-03-21 18:57:00,34.0,12.2,29.96,SSE,149,0.0,0.0,40,0.00,,CLR,0.00,VWS V14.01,2013-03-21 23:57:00,
2013-03-21 18:59:00,33.8,12.1,29.96,SSE,149,0.0,0.0,40,0.00,,CLR,0.00,VWS V14.01,2013-03-21 23:59:00,
2013-03-21 19:00:00,33.8,12.1,29.96,SSE,149,0.0,0.0,40,0.00,,CLR,0.00,VWS V14.01,2013-03-22 00:00:00,
2013-03-21 19:03:00,33.4,11.7,29.96,SSE,149,0.0,0.0,40,0.00,,CLR,0.00,VWS V14.01,2013-03-22 00:03:00,
2013-03-21 19:04:00,33.3,11.6,29.96,SSE,149,0.0,0.0,40,0.00,,CLR,0.00,VWS V14.01,2013-03-22 00:04:00,
2013-03-21 19:05:00,33.3,11.6,29.96,SSE,149,0.0,0.0,40,0.00,,CLR,0.00,VWS V14.01,2013-03-22 00:05:00,
2013-03-21 19:08:00,32.9,11.2,29.96,SSE,149,2.7,3.1,40,0.00,,CLR,0.00,VWS V14.01,2013-03-22 00:08:00,
2013-03-21 19:09:00,32.7,11.1,29.99,SSE,149,2.2,3.1,40,0.00,,CLR,0.00,VWS V14.01,2013-03-22 00:09:00,
2013-03-21 19:12:00,32.5,10.9,29.99,SSE,149,0.0,0.0,40,0.00,,CLR,0.00,VWS V14.01,2013-03-22 00:12:00,
2013-03-21 19:13:00,32.4,10.8,29.99,SSE,149,0.0,0.0,40,0.00,,CLR,0.00,VWS V14.01,2013-03-22 00:13:00,
2013-03-21 19:14:00,32.4,10.8,29.99,SSE,148,0.0,0.0,40,0.00,,CLR,0.00,VWS V14.01,2013-03-22 00:14:00,
2013-03-21 19:18:00,31.8,10.3,29.99,SE,139,3.1,3.1,40,0.00,,CLR,0.00,VWS V14.01,2013-03-22 00:18:00,
2013-03-21 19:19:00,31.6,10.1,29.99,ESE,115,3.6,3.6,40,0.00,,CLR,0.00,VWS V14.01,2013-03-22 00:19:00,
2013-03-21 19:23:00,31.1,9.6,29.99,ESE,115,0.0,0.0,40,0.00,,CLR,0.00,VWS V14.01,2013-03-22 00:23:00,
2013-03-21 19:24:00,31.1,9.6,29.99,ESE,115,0.0,0.0,40,0.00,,CLR,0.00,VWS V14.01,2013-03-22 00:24:00,
2013-03-21 19:25:00,31.1,9.6,29.99,ESE,115,0.0,0.0,40,0.00,,CLR,0.00,VWS V14.01,2013-03-22 00:25:00,
2013-03-21 19:29:00,30.6,9.1,29.99,East,101,2.7,2.7,40,0.00,,CLR,0.00,VWS V14.01,2013-03-22 00:29:00,
2013-03-21 19:30:00,30.6,9.1,29.99,East,101,3.6,3.6,40,0.00,,CLR,0.00,VWS V14.01,2013-03-22 00:30:00,
2013-03-21 19:31:00,30.4,9.0,29.99,East,100,3.1,3.6,40,0.00,,CLR,0.00,VWS V14.01,2013-03-22 00:31:00,
2013-03-21 19:34:00,30.4,9.0,29.99,East,96,2.7,3.1,40,0.00,,CLR,0.00,VWS V14.01,2013-03-22 00:34:00,
2013-03-21 19:35:00,30.4,9.0,29.99,East,96,0.0,0.0,40,0.00,,CLR,0.00,VWS V14.01,2013-03-22 00:35:00,
2013-03-21 19:36:00,30.2,8.8,29.99,East,96,0.0,2.2,40,0.00,,CLR,0.00,VWS V14.01,2013-03-22 00:36:00,
2013-03-21 19:39:00,30.2,8.8,29.99,East,95,0.0,0.0,40,0.00,,CLR,0.00,VWS V14.01,2013-03-22 00:39:00,
2013-03-21 19:40:00,30.0,8.6,29.99,East,96,0.0,0.0,40,0.00,,CLR,0.00,VWS V14.01,2013-03-22 00:40:00,
2013-03-21 19:41:00,30.0,8.6,29.99,East,95,0.0,0.0,40,0.00,,CLR,0.00,VWS V14.01,2013-03-22 00:41:00,
2013-03-21 19:42:00,30.0,8.6,29.99,East,96,0.0,0.0,40,0.00,,CLR,0.00,VWS V14.01,2013-03-22 00:42:00,
2013-03-21 19:44:00,29.8,8.5,29.99,East,96,0.0,0.0,40,0.00,,CLR,0.00,VWS V14.01,2013-03-22 00:44:00,
2013-03-21 19:46:00,29.7,8.3,29.99,East,96,2.2,2.7,40,0.00,,CLR,0.00,VWS V14.01,2013-03-22 00:46:00,
2013-03-21 19:47:00,29.7,8.3,29.99,East,96,2.2,2.7,40,0.00,,CLR,0.00,VWS V14.01,2013-03-22 00:47:00,
2013-03-21 19:49:00,29.5,8.1,29.99,East,96,0.0,0.0,40,0.00,,CLR,0.00,VWS V14.01,2013-03-22 00:49:00,
2013-03-21 19:52:00,29.3,8.0,29.99,East,96,0.0,0.0,40,0.00,,CLR,0.00,VWS V14.01,2013-03-22 00:52:00,
2013-03-21 19:54:00,28.9,7.7,29.99,East,95,0.0,0.0,40,0.00,,CLR,0.00,VWS V14.01,2013-03-22 00:54:00,
2013-03-21 19:57:00,28.8,7.5,29.99,East,95,0.0,0.0,40,0.00,,CLR,0.00,VWS V14.01,2013-03-22 00:57:00,
2013-03-21 19:58:00,28.8,7.5,29.99,East,96,0.0,0.0,40,0.00,,CLR,0.00,VWS V14.01,2013-03-22 00:58:00,
2013-03-21 19:59:00,28.8,7.5,29.99,East,96,0.0,0.0,40,0.00,,CLR,0.00,VWS V14.01,2013-03-22 00:59:00,
2013-03-21 20:03:00,28.6,7.3,29.99,East,96,0.0,0.0,40,0.00,,CLR,0.00,VWS V14.01,2013-03-22 01:03:00,
2013-03-21 20:04:00,28.4,8.2,29.99,East,95,0.0,0.0,42,0.00,,CLR,0.00,VWS V14.01,2013-03-22 01:04:00,
2013-03-21 20:08:00,28.0,7.9,29.99,East,95,0.0,0.0,42,0.00,,CLR,0.00,VWS V14.01,2013-03-22 01:08:00,
2013-03-21 20:09:00,28.0,7.9,29.99,East,95,0.0,0.0,42,0.00,,CLR,0.00,VWS V14.01,2013-03-22 01:09:00,
2013-03-21 20:10:00,28.0,7.9,29.99,East,96,0.0,0.0,42,0.00,,CLR,0.00,VWS V14.01,2013-03-22 01:10:00,
2013-03-21 20:13:00,27.9,7.8,29.99,East,96,0.0,0.0,42,0.00,,CLR,0.00,VWS V14.01,2013-03-22 01:13:00,
2013-03-21 20:14:00,27.9,7.8,29.99,East,96,0.0,0.0,42,0.00,,CLR,0.00,VWS V14.01,2013-03-22 01:14:00,
2013-03-21 20:15:00,27.7,7.6,29.99,East,96,0.0,0.0,42,0.00,,CLR,0.00,VWS V14.01,2013-03-22 01:15:00,
2013-03-21 20:19:00,27.5,7.4,29.99,East,97,0.0,0.0,42,0.00,,CLR,0.00,VWS V14.01,2013-03-22 01:19:00,
2013-03-21 20:20:00,27.5,7.4,29.99,East,97,0.0,0.0,42,0.00,,CLR,0.00,VWS V14.01,2013-03-22 01:20:00,
2013-03-21 20:24:00,27.5,7.4,29.99,East,97,0.0,0.0,42,0.00,,CLR,0.00,VWS V14.01,2013-03-22 01:24:00,
2013-03-21 20:25:00,27.5,7.4,29.99,East,97,0.0,0.0,42,0.00,,CLR,0.00,VWS V14.01,2013-03-22 01:25:00,
2013-03-21 20:29:00,27.7,7.6,29.99,East,98,0.0,0.0,42,0.00,,CLR,0.00,VWS V14.01,2013-03-22 01:29:00,
2013-03-21 20:30:00,27.7,7.6,29.99,East,98,0.0,0.0,42,0.00,,CLR,0.00,VWS V14.01,2013-03-22 01:30:00,
2013-03-21 20:31:00,27.9,7.8,29.99,East,98,0.0,0.0,42,0.00,,CLR,0.00,VWS V14.01,2013-03-22 01:31:00,
2013-03-21 20:35:00,27.9,7.8,29.99,East,98,0.0,0.0,42,0.00,,CLR,0.00,VWS V14.01,2013-03-22 01:35:00,
2013-03-21 20:37:00,27.9,7.8,29.99,East,98,0.0,0.0,42,0.00,,CLR,0.00,VWS V14.01,2013-03-22 01:37:00,
2013-03-21 20:40:00,27.7,7.6,29.99,East,98,2.7,2.7,42,0.00,,CLR,0.00,VWS V14.01,2013-03-22 01:40:00,
2013-03-21 20:42:00,27.7,7.6,29.99,East,98,0.0,2.2,42,0.00,,CLR,0.00,VWS V14.01,2013-03-22 01:42:00,
2013-03-21 20:45:00,27.7,7.6,29.99,East,98,0.0,0.0,42,0.00,,CLR,0.00,VWS V14.01,2013-03-22 01:45:00,
2013-03-21 20:47:00,27.7,7.6,29.99,East,98,0.0,0.0,42,0.00,,CLR,0.00,VWS V14.01,2013-03-22 01:47:00,
2013-03-21 20:48:00,27.5,7.4,29.99,East,98,0.0,0.0,42,0.00,,CLR,0.00,VWS V14.01,2013-03-22 01:48:00,
2013-03-21 20:50:00,27.5,7.4,29.99,East,98,0.0,0.0,42,0.00,,CLR,0.00,VWS V14.01,2013-03-22 01:50:00,
2013-03-21 20:52:00,27.7,7.6,29.99,East,98,0.0,0.0,42,0.00,,CLR,0.00,VWS V14.01,2013-03-22 01:52:00,
2013-03-21 20:53:00,27.7,7.6,29.99,East,98,0.0,0.0,42,0.00,,CLR,0.00,VWS V14.01,2013-03-22 01:53:00,
2013-03-21 20:55:00,27.7,7.6,29.99,East,98,0.0,0.0,42,0.00,,CLR,0.00,VWS V14.01,2013-03-22 01:55:00,
2013-03-21 20:57:00,27.9,7.8,29.99,East,98,0.0,0.0,42,0.00,,CLR,0.00,VWS V14.01,2013-03-22 01:57:00,
2013-03-21 20:58:00,27.9,7.8,29.99,East,98,0.0,0.0,42,0.00,,CLR,0.00,VWS V14.01,2013-03-22 01:58:00,
2013-03-21 20:59:00,27.9,7.8,29.99,East,98,0.0,0.0,42,0.00,,CLR,0.00,VWS V14.01,2013-03-22 01:59:00,
2013-03-21 21:02:00,27.9,7.8,29.99,East,98,0.0,0.0,42,0.00,,CLR,0.00,VWS V14.01,2013-03-22 02:02:00,
2013-03-21 21:03:00,27.9,7.8,29.99,East,98,0.0,0.0,42,0.00,,CLR,0.00,VWS V14.01,2013-03-22 02:03:00,
2013-03-21 21:06:00,27.9,7.8,29.99,East,98,0.0,0.0,42,0.00,,CLR,0.00,VWS V14.01,2013-03-22 02:06:00,
2013-03-21 21:07:00,27.9,7.8,29.99,ESE,106,4.0,4.0,42,0.00,,CLR,0.00,VWS V14.01,2013-03-22 02:07:00,
2013-03-21 21:08:00,27.9,7.8,29.99,ESE,110,3.1,3.1,42,0.00,,CLR,0.00,VWS V14.01,2013-03-22 02:08:00,
2013-03-21 21:11:00,28.0,7.9,29.99,ESE,111,3.1,3.6,42,0.00,,CLR,0.00,VWS V14.01,2013-03-22 02:11:00,
2013-03-21 21:12:00,28.0,7.9,29.99,ESE,111,3.1,3.1,42,0.00,,CLR,0.00,VWS V14.01,2013-03-22 02:12:00,
2013-03-21 21:13:00,28.0,7.9,29.99,ESE,111,2.7,2.7,42,0.00,,CLR,0.00,VWS V14.01,2013-03-22 02:13:00,
2013-03-21 21:16:00,28.0,7.9,29.99,ESE,111,0.0,0.0,42,0.00,,CLR,0.00,VWS V14.01,2013-03-22 02:16:00,
2013-03-21 21:17:00,28.0,7.9,29.99,ESE,111,0.0,0.0,42,0.00,,CLR,0.00,VWS V14.01,2013-03-22 02:17:00,
2013-03-21 21:19:00,28.0,7.9,29.99,ESE,111,0.0,0.0,42,0.00,,CLR,0.00,VWS V14.01,2013-03-22 02:19:00,
2013-03-21 21:22:00,27.9,7.8,29.99,ESE,111,0.0,0.0,42,0.00,,CLR,0.00,VWS V14.01,2013-03-22 02:22:00,
2013-03-21 21:24:00,27.7,7.6,29.99,ESE,111,0.0,0.0,42,0.00,,CLR,0.00,VWS V14.01,2013-03-22 02:24:00,
2013-03-21 21:27:00,27.5,7.4,29.99,ESE,111,0.0,0.0,42,0.00,,CLR,0.00,VWS V14.01,2013-03-22 02:27:00,
2013-03-21 21:29:00,27.5,7.4,29.99,ESE,111,0.0,0.0,42,0.00,,CLR,0.00,VWS V14.01,2013-03-22 02:29:00,
2013-03-21 21:30:00,27.7,7.6,29.99,ESE,111,0.0,0.0,42,0.00,,CLR,0.00,VWS V14.01,2013-03-22 02:30:00,
2013-03-21 21:32:00,27.7,7.6,29.99,ESE,111,0.0,0.0,42,0.00,,CLR,0.00,VWS V14.01,2013-03-22 02:32:00,
2013-03-21 21:34:00,27.5,7.4,29.99,ESE,111,0.0,0.0,42,0.00,,CLR,0.00,VWS V14.01,2013-03-22 02:34:00,
2013-03-21 21:36:00,27.5,7.4,29.99,ESE,111,0.0,0.0,42,0.00,,CLR,0.00,VWS V14.01,2013-03-22 02:36:00,
2013-03-21 21:37:00,27.3,7.3,29.99,ESE,111,0.0,0.0,42,0.00,,CLR,0.00,VWS V14.01,2013-03-22 02:37:00,
2013-03-21 21:38:00,27.1,7.1,30.02,ESE,111,0.0,0.0,42,0.00,,CLR,0.00,VWS V14.01,2013-03-22 02:38:00,
2013-03-21 21:40:00,27.0,6.9,30.02,ESE,111,0.0,0.0,42,0.00,,CLR,0.00,VWS V14.01,2013-03-22 02:40:00,
2013-03-21 21:41:00,27.0,6.9,30.02,ESE,111,0.0,0.0,42,0.00,,CLR,0.00,VWS V14.01,2013-03-22 02:41:00,
2013-03-21 21:43:00,26.6,6.6,30.02,ESE,111,0.0,0.0,42,0.00,,CLR,0.00,VWS V14.01,2013-03-22 02:43:00,
2013-03-21 21:45:00,26.6,6.6,30.02,ESE,111,0.0,0.0,42,0.00,,CLR,0.00,VWS V14.01,2013-03-22 02:45:00,
2013-03-21 21:48:00,26.2,6.3,30.02,ESE,103,3.1,3.1,42,0.00,,CLR,0.00,VWS V14.01,2013-03-22 02:48:00,
2013-03-21 21:49:00,26.2,6.3,30.02,ESE,103,2.7,3.1,42,0.00,,CLR,0.00,VWS V14.01,2013-03-22 02:49:00,
2013-03-21 21:50:00,26.2,6.3,30.02,East,92,0.0,2.2,42,0.00,,CLR,0.00,VWS V14.01,2013-03-22 02:50:00,
2013-03-21 21:51:00,26.2,6.3,30.02,East,92,0.0,0.0,42,0.00,,CLR,0.00,VWS V14.01,2013-03-22 02:51:00,
2013-03-21 21:54:00,26.1,6.1,30.02,East,92,0.0,0.0,42,0.00,,CLR,0.00,VWS V14.01,2013-03-22 02:54:00,
2013-03-21 21:57:00,25.9,6.0,30.02,East,92,3.6,3.6,42,0.00,,CLR,0.00,VWS V14.01,2013-03-22 02:57:00,
2013-03-21 21:58:00,25.7,5.8,30.02,East,92,3.1,3.1,42,0.00,,CLR,0.00,VWS V14.01,2013-03-22 02:58:00,
2013-03-21 21:59:00,25.7,5.8,30.02,East,92,0.0,3.1,42,0.00,,CLR,0.00,VWS V14.01,2013-03-22 02:59:00,
2013-03-21 22:02:00,25.5,5.6,30.02,East,92,0.0,0.0,42,0.00,,CLR,0.00,VWS V14.01,2013-03-22 03:02:00,
2013-03-21 22:04:00,25.3,5.5,30.02,East,92,0.0,0.0,42,0.00,,CLR,0.00,VWS V14.01,2013-03-22 03:04:00,
2013-03-21 22:05:00,25.3,5.5,30.02,East,92,0.0,0.0,42,0.00,,CLR,0.00,VWS V14.01,2013-03-22 03:05:00,
2013-03-21 22:07:00,25.2,5.3,30.02,East,92,0.0,0.0,42,0.00,,CLR,0.00,VWS V14.01,2013-03-22 03:07:00,
2013-03-21 22:10:00,25.0,5.1,30.02,East,92,0.0,0.0,42,0.00,,CLR,0.00,VWS V14.01,2013-03-22 03:10:00,
2013-03-21 22:12:00,24.8,6.0,30.02,East,92,0.0,0.0,44,0.00,,CLR,0.00,VWS V14.01,2013-03-22 03:12:00,
2013-03-21 22:15:00,24.8,6.0,30.02,East,92,0.0,0.0,44,0.00,,CLR,0.00,VWS V14.01,2013-03-22 03:15:00,
2013-03-21 22:17:00,24.8,6.0,30.02,East,92,0.0,0.0,44,0.00,,CLR,0.00,VWS V14.01,2013-03-22 03:17:00,
2013-03-21 22:20:00,25.0,5.1,30.02,East,89,3.6,4.0,42,0.00,,CLR,0.00,VWS V14.01,2013-03-22 03:20:00,
2013-03-21 22:23:00,25.2,5.3,29.99,East,81,4.0,4.0,42,0.00,,CLR,0.00,VWS V14.01,2013-03-22 03:23:00,
2013-03-21 22:25:00,25.3,5.5,29.99,East,81,2.7,3.1,42,0.00,,CLR,0.00,VWS V14.01,2013-03-22 03:25:00,
2013-03-21 22:26:00,25.3,5.5,29.99,East,81,0.0,3.1,42,0.00,,CLR,0.00,VWS V14.01,2013-03-22 03:26:00,
2013-03-21 22:28:00,25.3,5.5,29.99,East,81,0.0,2.2,42,0.00,,CLR,0.00,VWS V14.01,2013-03-22 03:28:00,
2013-03-21 22:31:00,25.2,5.3,29.99,East,81,0.0,0.0,42,0.00,,CLR,0.00,VWS V14.01,2013-03-22 03:31:00,
2013-03-21 22:32:00,25.0,5.1,29.99,East,81,0.0,3.6,42,0.00,,CLR,0.00,VWS V14.01,2013-03-22 03:32:00,
2013-03-21 22:34:00,25.0,5.1,29.99,East,81,3.1,3.1,42,0.00,,CLR,0.00,VWS V14.01,2013-03-22 03:34:00,
2013-03-21 22:37:00,25.0,5.1,29.99,East,81,0.0,0.0,42,0.00,,CLR,0.00,VWS V14.01,2013-03-22 03:37:00,
2013-03-21 22:38:00,24.8,6.0,30.02,East,81,0.0,0.0,44,0.00,,CLR,0.00,VWS V14.01,2013-03-22 03:38:00,
2013-03-21 22:40:00,24.8,6.0,30.02,East,81,0.0,0.0,44,0.00,,CLR,0.00,VWS V14.01,2013-03-22 03:40:00,
2013-03-21 22:42:00,24.6,5.8,30.02,East,81,0.0,0.0,44,0.00,,CLR,0.00,VWS V14.01,2013-03-22 03:42:00,
2013-03-21 22:43:00,24.6,5.8,30.02,East,81,0.0,0.0,44,0.00,,CLR,0.00,VWS V14.01,2013-03-22 03:43:00,
2013-03-21 22:46:00,24.4,5.7,30.02,East,81,0.0,0.0,44,0.00,,CLR,0.00,VWS V14.01,2013-03-22 03:46:00,
2013-03-21 22:47:00,24.4,5.7,30.02,East,81,0.0,0.0,44,0.00,,CLR,0.00,VWS V14.01,2013-03-22 03:47:00,
2013-03-21 22:48:00,24.3,5.5,30.02,East,81,0.0,0.0,44,0.00,,CLR,0.00,VWS V14.01,2013-03-22 03:48:00,
2013-03-21 22:49:00,24.3,5.5,30.02,East,81,0.0,0.0,44,0.00,,CLR,0.00,VWS V14.01,2013-03-22 03:49:00,
2013-03-21 22:51:00,24.1,5.3,30.02,East,81,0.0,0.0,44,0.00,,CLR,0.00,VWS V14.01,2013-03-22 03:51:00,
2013-03-21 22:53:00,24.1,5.3,30.02,East,81,0.0,0.0,44,0.00,,CLR,0.00,VWS V14.01,2013-03-22 03:53:00,
2013-03-21 22:54:00,23.9,5.2,30.02,East,81,0.0,0.0,44,0.00,,CLR,0.00,VWS V14.01,2013-03-22 03:54:00,
2013-03-21 22:55:00,23.9,5.2,30.02,East,81,0.0,0.0,44,0.00,,CLR,0.00,VWS V14.01,2013-03-22 03:55:00,
2013-03-21 22:57:00,23.9,5.2,30.02,East,81,0.0,0.0,44,0.00,,CLR,0.00,VWS V14.01,2013-03-22 03:57:00,
2013-03-21 22:58:00,23.9,5.2,30.02,East,81,0.0,0.0,44,0.00,,CLR,0.00,VWS V14.01,2013-03-22 03:58:00,
2013-03-21 23:00:00,24.1,5.3,30.02,East,81,0.0,0.0,44,0.00,,CLR,0.00,VWS V14.01,2013-03-22 04:00:00,
2013-03-21 23:04:00,24.4,5.7,30.02,East,81,0.0,0.0,44,0.00,,CLR,0.00,VWS V14.01,2013-03-22 04:04:00,
2013-03-21 23:05:00,24.4,5.7,30.02,East,81,0.0,0.0,44,0.00,,CLR,0.00,VWS V14.01,2013-03-22 04:05:00,
2013-03-21 23:07:00,24.4,5.7,30.02,East,81,0.0,0.0,44,0.00,,CLR,0.00,VWS V14.01,2013-03-22 04:07:00,
2013-03-21 23:09:00,24.4,5.7,30.02,East,81,0.0,0.0,44,0.00,,CLR,0.00,VWS V14.01,2013-03-22 04:09:00,
2013-03-21 23:10:00,24.4,5.7,30.02,East,81,0.0,0.0,44,0.00,,CLR,0.00,VWS V14.01,2013-03-22 04:10:00,
2013-03-21 23:13:00,24.4,5.7,30.02,East,81,0.0,0.0,44,0.00,,CLR,0.00,VWS V14.01,2013-03-22 04:13:00,
2013-03-21 23:15:00,24.3,5.5,30.02,East,81,0.0,0.0,44,0.00,,CLR,0.00,VWS V14.01,2013-03-22 04:15:00,
2013-03-21 23:16:00,24.3,5.5,30.02,East,81,0.0,0.0,44,0.00,,CLR,0.00,VWS V14.01,2013-03-22 04:16:00,
2013-03-21 23:18:00,24.1,5.3,30.02,East,81,0.0,0.0,44,0.00,,CLR,0.00,VWS V14.01,2013-03-22 04:18:00,
2013-03-21 23:20:00,23.9,5.2,30.02,East,81,0.0,0.0,44,0.00,,CLR,0.00,VWS V14.01,2013-03-22 04:20:00,
2013-03-21 23:22:00,23.9,5.2,30.02,East,81,2.7,3.1,44,0.00,,CLR,0.00,VWS V14.01,2013-03-22 04:22:00,
2013-03-21 23:24:00,23.9,5.2,30.02,East,81,0.0,2.7,44,0.00,,CLR,0.00,VWS V14.01,2013-03-22 04:24:00,
2013-03-21 23:27:00,23.7,5.0,30.02,East,81,0.0,0.0,44,0.00,,CLR,0.00,VWS V14.01,2013-03-22 04:27:00,
2013-03-21 23:28:00,23.7,5.0,30.02,East,81,0.0,0.0,44,0.00,,CLR,0.00,VWS V14.01,2013-03-22 04:28:00,
2013-03-21 23:29:00,23.7,5.0,30.02,East,81,0.0,0.0,44,0.00,,CLR,0.00,VWS V14.01,2013-03-22 04:29:00,
2013-03-21 23:32:00,23.7,5.0,30.02,East,81,0.0,0.0,44,0.00,,CLR,0.00,VWS V14.01,2013-03-22 04:32:00,
2013-03-21 23:34:00,23.7,5.0,30.02,East,81,2.7,2.7,44,0.00,,CLR,0.00,VWS V14.01,2013-03-22 04:34:00,
2013-03-21 23:35:00,23.7,5.0,30.02,East,81,0.0,0.0,44,0.00,,CLR,0.00,VWS V14.01,2013-03-22 04:35:00,
2013-03-21 23:37:00,23.5,4.8,30.02,East,81,0.0,0.0,44,0.00,,CLR,0.00,VWS V14.01,2013-03-22 04:37:00,
2013-03-21 23:40:00,23.5,4.8,30.02,East,81,0.0,0.0,44,0.00,,CLR,0.00,VWS V14.01,2013-03-22 04:40:00,
2013-03-21 23:43:00,23.4,4.7,30.02,East,81,0.0,0.0,44,0.00,,CLR,0.00,VWS V14.01,2013-03-22 04:43:00,
2013-03-21 23:45:00,23.2,4.5,30.02,East,81,0.0,0.0,44,0.00,,CLR,0.00,VWS V14.01,2013-03-22 04:45:00,
2013-03-21 23:46:00,23.2,4.5,30.02,East,81,0.0,0.0,44,0.00,,CLR,0.00,VWS V14.01,2013-03-22 04:46:00,
2013-03-21 23:49:00,23.0,4.3,30.02,East,81,0.0,0.0,44,0.00,,CLR,0.00,VWS V14.01,2013-03-22 04:49:00,
2013-03-21 23:51:00,23.0,4.3,30.02,East,84,0.0,0.0,44,0.00,,CLR,0.00,VWS V14.01,2013-03-22 04:51:00,
2013-03-21 23:52:00,23.2,4.5,30.02,East,84,0.0,0.0,44,0.00,,CLR,0.00,VWS V14.01,2013-03-22 04:52:00,
2013-03-21 23:54:00,23.4,4.7,30.02,East,84,0.0,0.0,44,0.00,,CLR,0.00,VWS V14.01,2013-03-22 04:54:00,
2013-03-21 23:57:00,23.5,4.8,30.02,East,81,0.0,0.0,44,0.00,,CLR,0.00,VWS V14.01,2013-03-22 04:57:00,
2013-03-21 23:59:00,23.5,4.8,30.02,East,81,2.7,2.7,44,0.00,,CLR,0.00,VWS V14.01,2013-03-22 04:59:00,